Wetterdaten: Sonntag, 01.09.2019
Datum Zeit Temp. Aussen Temp. o. S. +5cm Feuchte Auss Luftdruck Regen Sonnenschein Regendauer Solar Windben Empfang
01.09.2019 00:00 20,9 C 19,4 C 19,4 C 73 % 1010,3 hPa 0,0 l/m 0 min 0 min 0 W/m 6,4 km/h (2 Bft) 97,87 %
01.09.2019 00:02 20,8 C 19,4 C 19,4 C 73 % 1010,4 hPa 0,0 l/m 0 min 0 min 0 W/m 9,7 km/h (2 Bft) 97,56 %
01.09.2019 00:04 20,8 C 19,4 C 19,4 C 73 % 1010,5 hPa 0,0 l/m 0 min 0 min 0 W/m 9,7 km/h (2 Bft) 100,00 %
01.09.2019 00:08 20,7 C 18,9 C 19,4 C 73 % 1010,5 hPa 0,0 l/m 0 min 0 min 0 W/m 16,1 km/h (3 Bft) 100,00 %
01.09.2019 00:10 20,6 C 18,9 C 19,4 C 74 % 1010,6 hPa 0,0 l/m 0 min 0 min 0 W/m 6,4 km/h (2 Bft) 100,00 %
01.09.2019 00:12 20,6 C 18,9 C 19,4 C 74 % 1010,6 hPa 0,0 l/m 0 min 0 min 0 W/m 16,1 km/h (3 Bft) 100,00 %
01.09.2019 00:14 20,5 C 18,9 C 19,4 C 74 % 1010,6 hPa 0,0 l/m 0 min 0 min 0 W/m 9,7 km/h (2 Bft) 97,87 %
01.09.2019 00:16 20,4 C 18,9 C 18,9 C 74 % 1010,6 hPa 0,0 l/m 0 min 0 min 0 W/m 6,4 km/h (2 Bft) 97,87 %
01.09.2019 00:18 20,4 C 18,9 C 18,9 C 74 % 1010,7 hPa 0,0 l/m 0 min 0 min 0 W/m 12,9 km/h (3 Bft) 97,87 %
01.09.2019 00:20 20,3 C 18,9 C 18,9 C 73 % 1010,7 hPa 0,0 l/m 0 min 0 min 0 W/m 6,4 km/h (2 Bft) 97,83 %
01.09.2019 00:22 20,3 C 18,9 C 18,9 C 73 % 1010,8 hPa 0,0 l/m 0 min 0 min 0 W/m 12,9 km/h (3 Bft) 97,87 %
01.09.2019 00:24 20,2 C 18,9 C 18,9 C 73 % 1010,8 hPa 0,0 l/m 0 min 0 min 0 W/m 9,7 km/h (2 Bft) 97,87 %
01.09.2019 00:26 20,2 C 18,9 C 18,9 C 73 % 1010,9 hPa 0,0 l/m 0 min 0 min 0 W/m 12,9 km/h (3 Bft) 97,87 %
01.09.2019 00:28 20,1 C 18,9 C 18,9 C 73 % 1011,0 hPa 0,0 l/m 0 min 0 min 0 W/m 12,9 km/h (3 Bft) 97,87 %
01.09.2019 00:30 20,1 C 18,9 C 18,9 C 73 % 1011,0 hPa 0,0 l/m 0 min 0 min 0 W/m 6,4 km/h (2 Bft) 97,87 %
01.09.2019 00:32 20,1 C 18,9 C 18,9 C 73 % 1011,0 hPa 0,0 l/m 0 min 0 min 0 W/m 6,4 km/h (2 Bft) 97,83 %
01.09.2019 00:34 20,0 C 18,9 C 18,9 C 73 % 1011,0 hPa 0,0 l/m 0 min 0 min 0 W/m 6,4 km/h (2 Bft) 97,87 %
01.09.2019 00:36 20,0 C 18,3 C 18,9 C 73 % 1011,0 hPa 0,0 l/m 0 min 0 min 0 W/m 12,9 km/h (3 Bft) 97,87 %
01.09.2019 00:38 19,9 C 18,9 C 18,9 C 73 % 1011,0 hPa 0,0 l/m 0 min 0 min 0 W/m 19,3 km/h (3 Bft) 97,87 %
01.09.2019 00:40 19,9 C 18,3 C 18,9 C 73 % 1011,0 hPa 0,0 l/m 0 min 0 min 0 W/m 9,7 km/h (2 Bft) 97,87 %
01.09.2019 00:42 19,9 C 18,3 C 18,9 C 73 % 1011,1 hPa 0,0 l/m 0 min 0 min 0 W/m 6,4 km/h (2 Bft) 97,87 %
01.09.2019 00:44 19,8 C 18,3 C 18,9 C 73 % 1011,0 hPa 0,0 l/m 0 min 0 min 0 W/m 16,1 km/h (3 Bft) 97,83 %
01.09.2019 00:46 19,8 C 18,3 C 18,3 C 73 % 1011,0 hPa 0,0 l/m 0 min 0 min 0 W/m 12,9 km/h (3 Bft) 97,87 %
01.09.2019 00:48 19,7 C 18,3 C 18,9 C 73 % 1011,0 hPa 0,0 l/m 0 min 0 min 0 W/m 6,4 km/h (2 Bft) 97,87 %
01.09.2019 00:50 19,7 C 18,3 C 18,3 C 73 % 1011,0 hPa 0,0 l/m 0 min 0 min 0 W/m 9,7 km/h (2 Bft) 95,74 %
01.09.2019 00:52 19,7 C 18,3 C 18,3 C 73 % 1011,0 hPa 0,0 l/m 0 min 0 min 0 W/m 12,9 km/h (3 Bft) 97,87 %
01.09.2019 00:54 19,6 C 18,3 C 18,3 C 73 % 1011,1 hPa 0,0 l/m 0 min 0 min 0 W/m 9,7 km/h (2 Bft) 95,74 %
01.09.2019 00:56 19,6 C 18,3 C 18,3 C 74 % 1011,1 hPa 0,0 l/m 0 min 0 min 0 W/m 12,9 km/h (3 Bft) 97,83 %
01.09.2019 00:58 19,6 C 18,3 C 18,3 C 74 % 1011,0 hPa 0,0 l/m 0 min 0 min 0 W/m 9,7 km/h (2 Bft) 95,74 %
01.09.2019 01:00 19,5 C 18,3 C 18,3 C 74 % 1011,0 hPa 0,0 l/m 0 min 0 min 0 W/m 9,7 km/h (2 Bft) 97,87 %
01.09.2019 01:02 19,4 C 17,8 C 18,3 C 75 % 1011,0 hPa 0,0 l/m 0 min 0 min 0 W/m 6,4 km/h (2 Bft) 97,87 %
01.09.2019 01:04 19,4 C 17,8 C 18,3 C 75 % 1011,0 hPa 0,0 l/m 0 min 0 min 0 W/m 12,9 km/h (3 Bft) 97,87 %
01.09.2019 01:06 19,4 C 17,8 C 18,3 C 75 % 1011,0 hPa 0,0 l/m 0 min 0 min 0 W/m 9,7 km/h (2 Bft) 97,87 %
01.09.2019 01:08 19,3 C 17,8 C 18,3 C 75 % 1011,0 hPa 0,0 l/m 0 min 0 min 0 W/m 9,7 km/h (2 Bft) 97,83 %
01.09.2019 01:10 19,3 C 17,8 C 18,3 C 76 % 1011,0 hPa 0,0 l/m 0 min 0 min 0 W/m 22,5 km/h (4 Bft) 97,87 %
01.09.2019 01:12 19,3 C 17,8 C 18,3 C 76 % 1011,0 hPa 0,0 l/m 0 min 0 min 0 W/m 9,7 km/h (2 Bft) 95,74 %
01.09.2019 01:14 19,2 C 17,8 C 18,3 C 76 % 1011,0 hPa 0,0 l/m 0 min 0 min 0 W/m 9,7 km/h (2 Bft) 97,87 %
01.09.2019 01:16 19,2 C 17,8 C 18,3 C 77 % 1011,0 hPa 0,0 l/m 0 min 0 min 0 W/m 9,7 km/h (2 Bft) 97,87 %
01.09.2019 01:18 19,2 C 17,8 C 18,3 C 77 % 1011,0 hPa 0,0 l/m 0 min 0 min 0 W/m 9,7 km/h (2 Bft) 97,87 %
01.09.2019 01:20 19,2 C 17,8 C 17,8 C 77 % 1011,0 hPa 0,0 l/m 0 min 0 min 0 W/m 6,4 km/h (2 Bft) 100,00 %
01.09.2019 01:22 19,1 C 17,8 C 17,8 C 77 % 1011,1 hPa 0,0 l/m 0 min 0 min 0 W/m 6,4 km/h (2 Bft) 100,00 %
01.09.2019 01:24 19,1 C 17,8 C 17,8 C 77 % 1011,1 hPa 0,0 l/m 0 min 0 min 0 W/m 6,4 km/h (2 Bft) 100,00 %
01.09.2019 01:26 19,1 C 17,8 C 17,8 C 77 % 1011,1 hPa 0,0 l/m 0 min 0 min 0 W/m 9,7 km/h (2 Bft) 97,87 %
01.09.2019 01:28 19,0 C 17,8 C 17,8 C 77 % 1011,1 hPa 0,0 l/m 0 min 0 min 0 W/m 12,9 km/h (3 Bft) 95,74 %
01.09.2019 01:30 19,0 C 17,8 C 17,8 C 77 % 1011,1 hPa 0,0 l/m 0 min 0 min 0 W/m 6,4 km/h (2 Bft) 97,87 %
01.09.2019 01:32 18,9 C 17,8 C 17,8 C 77 % 1011,1 hPa 0,0 l/m 0 min 0 min 0 W/m 12,9 km/h (3 Bft) 100,00 %
01.09.2019 01:34 18,9 C 17,8 C 17,8 C 78 % 1011,1 hPa 0,0 l/m 0 min 0 min 0 W/m 6,4 km/h (2 Bft) 97,87 %
01.09.2019 01:36 18,9 C 17,8 C 17,8 C 78 % 1011,2 hPa 0,0 l/m 0 min 0 min 0 W/m 9,7 km/h (2 Bft) 97,87 %
01.09.2019 01:38 18,9 C 17,8 C 17,8 C 78 % 1011,3 hPa 0,0 l/m 0 min 0 min 0 W/m 9,7 km/h (2 Bft) 93,62 %
01.09.2019 01:40 18,8 C 17,2 C 17,8 C 79 % 1011,3 hPa 0,0 l/m 0 min 0 min 0 W/m 9,7 km/h (2 Bft) 97,87 %
01.09.2019 01:42 18,8 C 17,2 C 17,8 C 79 % 1011,3 hPa 0,0 l/m 0 min 0 min 0 W/m 6,4 km/h (2 Bft) 97,83 %
01.09.2019 01:44 18,8 C 17,2 C 17,8 C 79 % 1011,2 hPa 0,0 l/m 0 min 0 min 0 W/m 6,4 km/h (2 Bft) 95,74 %
01.09.2019 01:46 18,8 C 17,2 C 17,8 C 79 % 1011,3 hPa 0,0 l/m 0 min 0 min 0 W/m 9,7 km/h (2 Bft) 97,87 %
01.09.2019 01:48 18,7 C 17,2 C 17,8 C 79 % 1011,3 hPa 0,0 l/m 0 min 0 min 0 W/m 9,7 km/h (2 Bft) 97,87 %
01.09.2019 01:50 18,7 C 17,2 C 17,8 C 79 % 1011,3 hPa 0,0 l/m 0 min 0 min 0 W/m 9,7 km/h (2 Bft) 95,74 %
01.09.2019 01:52 18,7 C 17,2 C 17,8 C 79 % 1011,3 hPa 0,0 l/m 0 min 0 min 0 W/m 9,7 km/h (2 Bft) 95,74 %
01.09.2019 01:54 18,7 C 17,2 C 17,8 C 79 % 1011,3 hPa 0,0 l/m 0 min 0 min 0 W/m 9,7 km/h (2 Bft) 95,65 %
01.09.2019 01:56 18,6 C 17,2 C 17,8 C 79 % 1011,3 hPa 0,0 l/m 0 min 0 min 0 W/m 9,7 km/h (2 Bft) 95,74 %
01.09.2019 01:58 18,6 C 17,2 C 17,8 C 79 % 1011,3 hPa 0,0 l/m 0 min 0 min 0 W/m 9,7 km/h (2 Bft) 93,62 %
01.09.2019 02:00 18,6 C 17,2 C 17,8 C 79 % 1011,4 hPa 0,0 l/m 0 min 0 min 0 W/m 9,7 km/h (2 Bft) 95,74 %
01.09.2019 02:02 18,6 C 17,2 C 17,2 C 79 % 1011,5 hPa 0,0 l/m 0 min 0 min 0 W/m 6,4 km/h (2 Bft) 95,74 %
01.09.2019 02:04 18,6 C 17,2 C 17,8 C 79 % 1011,5 hPa 0,0 l/m 0 min 0 min 0 W/m 9,7 km/h (2 Bft) 93,62 %
01.09.2019 02:06 18,6 C 17,2 C 17,2 C 79 % 1011,4 hPa 0,0 l/m 0 min 0 min 0 W/m 9,7 km/h (2 Bft) 95,65 %
01.09.2019 02:08 18,5 C 17,2 C 17,2 C 80 % 1011,3 hPa 0,0 l/m 0 min 0 min 0 W/m 3,2 km/h (1 Bft) 95,74 %
01.09.2019 02:10 18,5 C 17,2 C 17,2 C 80 % 1011,3 hPa 0,0 l/m 0 min 0 min 0 W/m 9,7 km/h (2 Bft) 93,62 %
01.09.2019 02:12 18,4 C 17,2 C 17,2 C 80 % 1011,4 hPa 0,0 l/m 0 min 0 min 0 W/m 6,4 km/h (2 Bft) 93,62 %
01.09.2019 02:14 18,4 C 17,2 C 17,2 C 80 % 1011,4 hPa 0,0 l/m 0 min 0 min 0 W/m 9,7 km/h (2 Bft) 95,74 %
01.09.2019 02:16 18,4 C 17,2 C 17,2 C 80 % 1011,4 hPa 0,0 l/m 0 min 0 min 0 W/m 9,7 km/h (2 Bft) 95,74 %
01.09.2019 02:18 18,4 C 17,2 C 17,2 C 81 % 1011,3 hPa 0,0 l/m 0 min 0 min 0 W/m 9,7 km/h (2 Bft) 95,65 %
01.09.2019 02:20 18,4 C 17,2 C 17,2 C 81 % 1011,4 hPa 0,0 l/m 0 min 0 min 0 W/m 6,4 km/h (2 Bft) 93,62 %
01.09.2019 02:22 18,4 C 17,2 C 17,2 C 81 % 1011,4 hPa 0,0 l/m 0 min 0 min 0 W/m 9,7 km/h (2 Bft) 93,62 %
01.09.2019 02:24 18,3 C 17,2 C 17,2 C 81 % 1011,4 hPa 0,0 l/m 0 min 0 min 0 W/m 3,2 km/h (1 Bft) 95,74 %
01.09.2019 02:26 18,3 C 17,2 C 17,2 C 81 % 1011,5 hPa 0,0 l/m 0 min 0 min 0 W/m 9,7 km/h (2 Bft) 95,74 %
01.09.2019 02:28 18,3 C 17,2 C 17,2 C 81 % 1011,5 hPa 0,0 l/m 0 min 0 min 0 W/m 3,2 km/h (1 Bft) 95,74 %
01.09.2019 02:30 18,3 C 17,2 C 17,2 C 81 % 1011,5 hPa 0,0 l/m 0 min 0 min 0 W/m 3,2 km/h (1 Bft) 97,83 %
01.09.2019 02:32 18,3 C 17,2 C 17,2 C 81 % 1011,6 hPa 0,0 l/m 0 min 0 min 0 W/m 3,2 km/h (1 Bft) 95,74 %
01.09.2019 02:34 18,3 C 17,2 C 17,2 C 81 % 1011,5 hPa 0,0 l/m 0 min 0 min 0 W/m 9,7 km/h (2 Bft) 97,87 %
01.09.2019 02:36 18,2 C 17,2 C 17,2 C 81 % 1011,5 hPa 0,0 l/m 0 min 0 min 0 W/m 6,4 km/h (2 Bft) 97,87 %
01.09.2019 02:38 18,2 C 17,2 C 17,2 C 81 % 1011,5 hPa 0,0 l/m 0 min 0 min 0 W/m 6,4 km/h (2 Bft) 100,00 %
01.09.2019 02:40 18,2 C 17,2 C 17,2 C 81 % 1011,4 hPa 0,0 l/m 0 min 0 min 0 W/m 9,7 km/h (2 Bft) 97,87 %
01.09.2019 02:42 18,2 C 17,2 C 17,2 C 81 % 1011,4 hPa 0,0 l/m 0 min 0 min 0 W/m 9,7 km/h (2 Bft) 100,00 %
01.09.2019 02:44 18,2 C 17,2 C 17,2 C 81 % 1011,5 hPa 0,0 l/m 0 min 0 min 0 W/m 9,7 km/h (2 Bft) 97,87 %
01.09.2019 02:46 18,2 C 17,2 C 17,2 C 81 % 1011,4 hPa 0,0 l/m 0 min 0 min 0 W/m 6,4 km/h (2 Bft) 100,00 %
01.09.2019 02:48 18,2 C 17,2 C 17,2 C 81 % 1011,4 hPa 0,0 l/m 0 min 0 min 0 W/m 9,7 km/h (2 Bft) 100,00 %
01.09.2019 02:50 18,2 C 17,2 C 17,2 C 81 % 1011,4 hPa 0,0 l/m 0 min 0 min 0 W/m 12,9 km/h (3 Bft) 97,87 %
01.09.2019 02:52 18,2 C 17,2 C 17,2 C 82 % 1011,4 hPa 0,0 l/m 0 min 0 min 0 W/m 6,4 km/h (2 Bft) 100,00 %
01.09.2019 02:54 18,2 C 17,2 C 17,2 C 82 % 1011,4 hPa 0,0 l/m 0 min 0 min 0 W/m 6,4 km/h (2 Bft) 100,00 %
01.09.2019 02:56 18,2 C 17,2 C 17,2 C 82 % 1011,5 hPa 0,0 l/m 0 min 0 min 0 W/m 9,7 km/h (2 Bft) 100,00 %
01.09.2019 02:58 18,2 C 17,2 C 17,2 C 82 % 1011,4 hPa 0,0 l/m 0 min 0 min 0 W/m 3,2 km/h (1 Bft) 100,00 %
01.09.2019 03:00 18,2 C 17,2 C 17,2 C 82 % 1011,5 hPa 0,0 l/m 0 min 0 min 0 W/m 6,4 km/h (2 Bft) 100,00 %
01.09.2019 03:02 18,2 C 17,2 C 17,2 C 82 % 1011,4 hPa 0,0 l/m 0 min 0 min 0 W/m 3,2 km/h (1 Bft) 100,00 %
01.09.2019 03:04 18,1 C 17,2 C 17,2 C 82 % 1011,3 hPa 0,0 l/m 0 min 0 min 0 W/m 3,2 km/h (1 Bft) 100,00 %
01.09.2019 03:06 18,1 C 17,2 C 17,2 C 82 % 1011,4 hPa 0,0 l/m 0 min 0 min 0 W/m 6,4 km/h (2 Bft) 100,00 %
01.09.2019 03:08 18,1 C 16,7 C 17,2 C 82 % 1011,4 hPa 0,0 l/m 0 min 0 min 0 W/m 0,0 km/h (0 Bft) 100,00 %
01.09.2019 03:10 18,1 C 17,2 C 17,2 C 82 % 1011,3 hPa 0,0 l/m 0 min 0 min 0 W/m 9,7 km/h (2 Bft) 100,00 %
01.09.2019 03:12 18,1 C 17,2 C 17,2 C 82 % 1011,3 hPa 0,0 l/m 0 min 0 min 0 W/m 9,7 km/h (2 Bft) 100,00 %
01.09.2019 03:14 18,1 C 17,2 C 17,2 C 82 % 1011,4 hPa 0,0 l/m 0 min 0 min 0 W/m 3,2 km/h (1 Bft) 100,00 %
01.09.2019 03:16 18,1 C 17,2 C 17,2 C 82 % 1011,4 hPa 0,0 l/m 0 min 0 min 0 W/m 3,2 km/h (1 Bft) 97,83 %
01.09.2019 03:18 18,1 C 17,2 C 17,2 C 83 % 1011,4 hPa 0,0 l/m 0 min 0 min 0 W/m 3,2 km/h (1 Bft) 100,00 %
01.09.2019 03:20 18,1 C 16,7 C 17,2 C 83 % 1011,5 hPa 0,0 l/m 0 min 0 min 0 W/m 6,4 km/h (2 Bft) 100,00 %
01.09.2019 03:22 18,1 C 16,7 C 17,2 C 82 % 1011,5 hPa 0,0 l/m 0 min 0 min 0 W/m 9,7 km/h (2 Bft) 97,87 %
01.09.2019 03:24 18,1 C 16,7 C 17,2 C 83 % 1011,6 hPa 0,0 l/m 0 min 0 min 0 W/m 9,7 km/h (2 Bft) 100,00 %
01.09.2019 03:26 18,1 C 16,7 C 17,2 C 83 % 1011,6 hPa 0,0 l/m 0 min 0 min 0 W/m 3,2 km/h (1 Bft) 100,00 %
01.09.2019 03:28 18,1 C 16,7 C 17,2 C 83 % 1011,6 hPa 0,0 l/m 0 min 0 min 0 W/m 6,4 km/h (2 Bft) 100,00 %
01.09.2019 03:30 18,0 C 16,7 C 17,2 C 83 % 1011,7 hPa 0,0 l/m 0 min 0 min 0 W/m 9,7 km/h (2 Bft) 100,00 %
01.09.2019 03:32 18,0 C 16,7 C 16,7 C 83 % 1011,6 hPa 0,0 l/m 0 min 0 min 0 W/m 9,7 km/h (2 Bft) 100,00 %
01.09.2019 03:34 18,0 C 16,7 C 16,7 C 83 % 1011,7 hPa 0,0 l/m 0 min 0 min 0 W/m 0,0 km/h (0 Bft) 97,87 %
01.09.2019 03:36 18,0 C 16,7 C 16,7 C 83 % 1011,7 hPa 0,0 l/m 0 min 0 min 0 W/m 6,4 km/h (2 Bft) 100,00 %
01.09.2019 03:38 17,9 C 16,7 C 16,7 C 83 % 1011,7 hPa 0,0 l/m 0 min 0 min 0 W/m 9,7 km/h (2 Bft) 100,00 %
01.09.2019 03:40 17,9 C 16,7 C 16,7 C 83 % 1011,7 hPa 0,0 l/m 0 min 0 min 0 W/m 6,4 km/h (2 Bft) 100,00 %
01.09.2019 03:42 17,9 C 16,7 C 16,7 C 83 % 1011,7 hPa 0,0 l/m 0 min 0 min 0 W/m 6,4 km/h (2 Bft) 100,00 %
01.09.2019 03:44 17,9 C 16,7 C 16,7 C 83 % 1011,7 hPa 0,0 l/m 0 min 0 min 0 W/m 6,4 km/h (2 Bft) 100,00 %
01.09.2019 03:46 17,9 C 16,7 C 16,7 C 83 % 1011,8 hPa 0,0 l/m 0 min 0 min 0 W/m 3,2 km/h (1 Bft) 97,87 %
01.09.2019 03:48 17,9 C 16,7 C 16,7 C 83 % 1011,7 hPa 0,0 l/m 0 min 0 min 0 W/m 3,2 km/h (1 Bft) 100,00 %
01.09.2019 03:50 17,8 C 16,7 C 16,7 C 83 % 1011,7 hPa 0,0 l/m 0 min 0 min 0 W/m 6,4 km/h (2 Bft) 97,83 %
01.09.2019 03:52 17,8 C 16,7 C 16,7 C 83 % 1011,8 hPa 0,0 l/m 0 min 0 min 0 W/m 6,4 km/h (2 Bft) 97,87 %
01.09.2019 03:54 17,8 C 16,7 C 16,7 C 83 % 1011,8 hPa 0,0 l/m 0 min 0 min 0 W/m 6,4 km/h (2 Bft) 100,00 %
01.09.2019 03:56 17,8 C 16,7 C 16,7 C 83 % 1011,9 hPa 0,0 l/m 0 min 0 min 0 W/m 3,2 km/h (1 Bft) 97,87 %
01.09.2019 03:58 17,8 C 16,7 C 16,7 C 83 % 1011,8 hPa 0,0 l/m 0 min 0 min 0 W/m 12,9 km/h (3 Bft) 97,87 %
01.09.2019 04:00 17,8 C 16,7 C 16,7 C 84 % 1011,8 hPa 0,0 l/m 0 min 0 min 0 W/m 3,2 km/h (1 Bft) 97,87 %
01.09.2019 04:02 17,8 C 16,7 C 16,7 C 84 % 1011,9 hPa 0,0 l/m 0 min 0 min 0 W/m 9,7 km/h (2 Bft) 100,00 %
01.09.2019 04:04 17,7 C 16,7 C 16,7 C 84 % 1011,8 hPa 0,0 l/m 0 min 0 min 0 W/m 9,7 km/h (2 Bft) 100,00 %
01.09.2019 04:06 17,7 C 16,7 C 16,7 C 84 % 1011,8 hPa 0,0 l/m 0 min 0 min 0 W/m 6,4 km/h (2 Bft) 93,62 %
01.09.2019 04:08 17,7 C 16,7 C 16,7 C 84 % 1011,9 hPa 0,0 l/m 0 min 0 min 0 W/m 6,4 km/h (2 Bft) 97,83 %
01.09.2019 04:10 17,7 C 16,7 C 16,7 C 84 % 1011,8 hPa 0,0 l/m 0 min 0 min 0 W/m 6,4 km/h (2 Bft) 97,87 %
01.09.2019 04:12 17,7 C 16,7 C 16,7 C 84 % 1011,9 hPa 0,0 l/m 0 min 0 min 0 W/m 6,4 km/h (2 Bft) 93,62 %
01.09.2019 04:14 17,7 C 16,7 C 16,7 C 84 % 1011,9 hPa 0,0 l/m 0 min 0 min 0 W/m 3,2 km/h (1 Bft) 97,87 %
01.09.2019 04:16 17,7 C 16,7 C 16,7 C 84 % 1012,0 hPa 0,0 l/m 0 min 0 min 0 W/m 6,4 km/h (2 Bft) 97,87 %
01.09.2019 04:18 17,7 C 16,7 C 16,7 C 84 % 1011,9 hPa 0,0 l/m 0 min 0 min 0 W/m 3,2 km/h (1 Bft) 97,87 %
01.09.2019 04:20 17,6 C 16,7 C 16,7 C 84 % 1012,0 hPa 0,0 l/m 0 min 0 min 0 W/m 9,7 km/h (2 Bft) 97,83 %
01.09.2019 04:22 17,6 C 16,7 C 16,7 C 84 % 1012,0 hPa 0,0 l/m 0 min 0 min 0 W/m 6,4 km/h (2 Bft) 95,74 %
01.09.2019 04:24 17,6 C 16,7 C 16,7 C 84 % 1012,0 hPa 0,0 l/m 0 min 0 min 0 W/m 6,4 km/h (2 Bft) 97,87 %
01.09.2019 04:26 17,6 C 16,7 C 16,7 C 84 % 1011,9 hPa 0,0 l/m 0 min 0 min 0 W/m 6,4 km/h (2 Bft) 97,87 %
01.09.2019 04:28 17,6 C 16,7 C 16,7 C 84 % 1012,0 hPa 0,0 l/m 0 min 0 min 0 W/m 6,4 km/h (2 Bft) 97,87 %
01.09.2019 04:30 17,6 C 16,7 C 16,7 C 84 % 1011,9 hPa 0,0 l/m 0 min 0 min 0 W/m 3,2 km/h (1 Bft) 95,74 %
01.09.2019 04:32 17,6 C 16,7 C 16,7 C 85 % 1011,9 hPa 0,0 l/m 0 min 0 min 0 W/m 3,2 km/h (1 Bft) 93,62 %
01.09.2019 04:34 17,6 C 16,7 C 16,7 C 85 % 1011,8 hPa 0,0 l/m 0 min 0 min 0 W/m 12,9 km/h (3 Bft) 95,74 %
01.09.2019 04:36 17,6 C 16,7 C 16,7 C 85 % 1011,8 hPa 0,0 l/m 0 min 0 min 0 W/m 12,9 km/h (3 Bft) 93,75 %
01.09.2019 04:38 17,5 C 16,7 C 16,7 C 85 % 1011,9 hPa 0,0 l/m 0 min 0 min 0 W/m 6,4 km/h (2 Bft) 93,75 %
01.09.2019 04:40 17,5 C 16,7 C 16,7 C 85 % 1011,9 hPa 0,0 l/m 0 min 0 min 0 W/m 6,4 km/h (2 Bft) 93,62 %
01.09.2019 04:42 17,5 C 16,7 C 16,7 C 85 % 1011,8 hPa 0,0 l/m 0 min 0 min 0 W/m 6,4 km/h (2 Bft) 91,49 %
01.09.2019 04:44 17,4 C 16,1 C 16,7 C 85 % 1011,8 hPa 0,0 l/m 0 min 0 min 0 W/m 3,2 km/h (1 Bft) 93,62 %
01.09.2019 04:46 17,4 C 16,1 C 16,7 C 85 % 1011,8 hPa 0,0 l/m 0 min 0 min 0 W/m 9,7 km/h (2 Bft) 93,62 %
01.09.2019 04:48 17,4 C 16,1 C 16,1 C 85 % 1011,9 hPa 0,0 l/m 0 min 0 min 0 W/m 3,2 km/h (1 Bft) 93,62 %
01.09.2019 04:50 17,4 C 16,1 C 16,1 C 85 % 1011,8 hPa 0,0 l/m 0 min 0 min 0 W/m 3,2 km/h (1 Bft) 93,62 %
01.09.2019 04:52 17,4 C 16,1 C 16,1 C 85 % 1011,8 hPa 0,0 l/m 0 min 0 min 0 W/m 6,4 km/h (2 Bft) 91,30 %
01.09.2019 04:54 17,4 C 16,1 C 16,1 C 85 % 1011,9 hPa 0,0 l/m 0 min 0 min 0 W/m 3,2 km/h (1 Bft) 93,62 %
01.09.2019 04:56 17,3 C 16,1 C 16,1 C 85 % 1011,8 hPa 0,0 l/m 0 min 0 min 0 W/m 3,2 km/h (1 Bft) 95,74 %
01.09.2019 04:58 17,3 C 16,1 C 16,1 C 85 % 1011,9 hPa 0,0 l/m 0 min 0 min 0 W/m 6,4 km/h (2 Bft) 95,74 %
01.09.2019 05:00 17,3 C 16,1 C 16,1 C 85 % 1011,9 hPa 0,0 l/m 0 min 0 min 0 W/m 3,2 km/h (1 Bft) 91,49 %
01.09.2019 05:02 17,3 C 16,1 C 16,1 C 85 % 1012,0 hPa 0,0 l/m 0 min 0 min 0 W/m 0,0 km/h (0 Bft) 93,48 %
01.09.2019 05:04 17,2 C 16,1 C 16,1 C 85 % 1012,0 hPa 0,0 l/m 0 min 0 min 0 W/m 0,0 km/h (0 Bft) 95,35 %
01.09.2019 05:06 17,2 C 16,1 C 16,1 C 86 % 1011,9 hPa 0,0 l/m 0 min 0 min 0 W/m 3,2 km/h (1 Bft) 95,74 %
01.09.2019 05:08 17,2 C 15,6 C 16,1 C 86 % 1011,9 hPa 0,0 l/m 0 min 0 min 0 W/m 6,4 km/h (2 Bft) 95,74 %
01.09.2019 05:10 17,2 C 15,6 C 16,1 C 86 % 1011,9 hPa 0,0 l/m 0 min 0 min 0 W/m 3,2 km/h (1 Bft) 95,83 %
01.09.2019 05:12 17,2 C 15,6 C 16,1 C 86 % 1011,9 hPa 0,0 l/m 0 min 0 min 0 W/m 12,9 km/h (3 Bft) 93,75 %
01.09.2019 05:14 17,1 C 16,1 C 16,1 C 86 % 1011,9 hPa 0,0 l/m 0 min 0 min 0 W/m 0,0 km/h (0 Bft) 95,74 %
01.09.2019 05:16 17,1 C 16,1 C 16,1 C 86 % 1011,9 hPa 0,0 l/m 0 min 0 min 0 W/m 3,2 km/h (1 Bft) 95,83 %
01.09.2019 05:18 17,1 C 16,1 C 16,1 C 86 % 1011,9 hPa 0,0 l/m 0 min 0 min 0 W/m 3,2 km/h (1 Bft) 93,62 %
01.09.2019 05:20 17,1 C 16,1 C 16,1 C 86 % 1011,9 hPa 0,0 l/m 0 min 0 min 0 W/m 6,4 km/h (2 Bft) 95,74 %
01.09.2019 05:22 17,1 C 16,1 C 16,1 C 86 % 1011,9 hPa 0,0 l/m 0 min 0 min 0 W/m 3,2 km/h (1 Bft) 93,62 %
01.09.2019 05:24 17,1 C 16,1 C 16,1 C 86 % 1011,9 hPa 0,0 l/m 0 min 0 min 0 W/m 3,2 km/h (1 Bft) 100,00 %
01.09.2019 05:26 17,1 C 15,6 C 16,1 C 87 % 1011,9 hPa 0,0 l/m 0 min 0 min 0 W/m 3,2 km/h (1 Bft) 100,00 %
01.09.2019 05:28 17,0 C 15,6 C 16,1 C 87 % 1011,9 hPa 0,0 l/m 0 min 0 min 0 W/m 3,2 km/h (1 Bft) 100,00 %
01.09.2019 05:30 17,0 C 15,6 C 16,1 C 87 % 1011,8 hPa 0,0 l/m 0 min 0 min 0 W/m 3,2 km/h (1 Bft) 100,00 %
01.09.2019 05:32 17,0 C 16,1 C 16,1 C 87 % 1011,8 hPa 0,0 l/m 0 min 0 min 0 W/m 3,2 km/h (1 Bft) 97,87 %
01.09.2019 05:34 17,0 C 16,1 C 16,1 C 87 % 1011,8 hPa 0,0 l/m 0 min 0 min 0 W/m 6,4 km/h (2 Bft) 100,00 %
01.09.2019 05:36 17,0 C 16,1 C 16,1 C 87 % 1011,8 hPa 0,0 l/m 0 min 0 min 0 W/m 6,4 km/h (2 Bft) 100,00 %
01.09.2019 05:38 16,9 C 16,1 C 16,1 C 87 % 1011,8 hPa 0,0 l/m 0 min 0 min 0 W/m 3,2 km/h (1 Bft) 100,00 %
01.09.2019 05:40 16,9 C 16,1 C 16,1 C 88 % 1011,8 hPa 0,0 l/m 0 min 0 min 0 W/m 3,2 km/h (1 Bft) 97,92 %
01.09.2019 05:42 16,9 C 16,1 C 16,1 C 88 % 1011,8 hPa 0,0 l/m 0 min 0 min 0 W/m 3,2 km/h (1 Bft) 100,00 %
01.09.2019 05:44 16,9 C 16,1 C 16,1 C 88 % 1011,8 hPa 0,0 l/m 0 min 0 min 0 W/m 3,2 km/h (1 Bft) 100,00 %
01.09.2019 05:46 16,9 C 16,1 C 16,1 C 88 % 1011,8 hPa 0,0 l/m 0 min 0 min 0 W/m 9,7 km/h (2 Bft) 100,00 %
01.09.2019 05:48 16,9 C 16,1 C 16,1 C 88 % 1011,8 hPa 0,0 l/m 0 min 0 min 0 W/m 0,0 km/h (0 Bft) 100,00 %
01.09.2019 05:50 17,0 C 16,1 C 16,1 C 88 % 1011,8 hPa 0,0 l/m 0 min 0 min 0 W/m 6,4 km/h (2 Bft) 100,00 %
01.09.2019 05:52 17,0 C 16,1 C 16,1 C 88 % 1011,9 hPa 0,0 l/m 0 min 0 min 0 W/m 3,2 km/h (1 Bft) 100,00 %
01.09.2019 05:54 17,0 C 16,1 C 16,1 C 88 % 1011,9 hPa 0,0 l/m 0 min 0 min 0 W/m 3,2 km/h (1 Bft) 100,00 %
01.09.2019 05:56 16,9 C 16,1 C 16,1 C 88 % 1011,8 hPa 0,0 l/m 0 min 0 min 0 W/m 3,2 km/h (1 Bft) 100,00 %
01.09.2019 05:58 17,0 C 16,1 C 16,1 C 88 % 1011,8 hPa 0,0 l/m 0 min 0 min 0 W/m 6,4 km/h (2 Bft) 100,00 %
01.09.2019 06:00 17,0 C 16,1 C 16,1 C 88 % 1011,8 hPa 0,0 l/m 0 min 0 min 0 W/m 3,2 km/h (1 Bft) 100,00 %
01.09.2019 06:02 16,9 C 16,1 C 16,1 C 88 % 1011,8 hPa 0,0 l/m 0 min 0 min 0 W/m 3,2 km/h (1 Bft) 97,83 %
01.09.2019 06:04 17,0 C 16,1 C 16,1 C 88 % 1011,8 hPa 0,0 l/m 0 min 0 min 0 W/m 3,2 km/h (1 Bft) 100,00 %
01.09.2019 06:08 16,9 C 16,1 C 16,1 C 88 % 1011,9 hPa 0,0 l/m 0 min 0 min 0 W/m 3,2 km/h (1 Bft) 100,00 %
01.09.2019 06:10 17,0 C 16,1 C 16,1 C 89 % 1011,8 hPa 0,0 l/m 0 min 0 min 0 W/m 3,2 km/h (1 Bft) 100,00 %
01.09.2019 06:12 17,0 C 16,1 C 16,1 C 89 % 1011,8 hPa 0,0 l/m 0 min 0 min 0 W/m 0,0 km/h (0 Bft) 100,00 %
01.09.2019 06:14 17,0 C 16,1 C 16,1 C 89 % 1011,8 hPa 0,0 l/m 0 min 0 min 0 W/m 6,4 km/h (2 Bft) 100,00 %
01.09.2019 06:16 17,0 C 16,1 C 16,1 C 89 % 1011,9 hPa 0,0 l/m 0 min 0 min 0 W/m 0,0 km/h (0 Bft) 100,00 %
01.09.2019 06:18 17,0 C 16,1 C 16,1 C 89 % 1011,9 hPa 0,0 l/m 0 min 0 min 0 W/m 3,2 km/h (1 Bft) 100,00 %
01.09.2019 06:20 17,0 C 16,1 C 16,1 C 89 % 1012,0 hPa 0,0 l/m 0 min 0 min 0 W/m 3,2 km/h (1 Bft) 100,00 %
01.09.2019 06:22 17,0 C 16,1 C 16,1 C 89 % 1012,0 hPa 0,0 l/m 0 min 0 min 0 W/m 0,0 km/h (0 Bft) 100,00 %
01.09.2019 06:24 17,0 C 16,1 C 16,1 C 89 % 1012,0 hPa 0,0 l/m 0 min 0 min 0 W/m 3,2 km/h (1 Bft) 100,00 %
01.09.2019 06:26 17,0 C 16,1 C 16,7 C 89 % 1012,0 hPa 0,0 l/m 0 min 0 min 0 W/m 9,7 km/h (2 Bft) 100,00 %
01.09.2019 06:28 17,1 C 16,1 C 16,7 C 89 % 1012,0 hPa 0,0 l/m 0 min 0 min 0 W/m 9,7 km/h (2 Bft) 100,00 %
01.09.2019 06:30 17,1 C 16,7 C 16,7 C 89 % 1012,0 hPa 0,0 l/m 0 min 0 min 0 W/m 3,2 km/h (1 Bft) 100,00 %
01.09.2019 06:32 17,1 C 16,7 C 16,7 C 89 % 1012,1 hPa 0,0 l/m 0 min 0 min 0 W/m 3,2 km/h (1 Bft) 100,00 %
01.09.2019 06:34 17,1 C 16,7 C 16,7 C 89 % 1012,0 hPa 0,0 l/m 0 min 0 min 0 W/m 6,4 km/h (2 Bft) 100,00 %
01.09.2019 06:36 17,1 C 16,7 C 16,7 C 89 % 1012,0 hPa 0,0 l/m 0 min 0 min 0 W/m 3,2 km/h (1 Bft) 100,00 %
01.09.2019 06:38 17,1 C 16,7 C 16,7 C 89 % 1012,1 hPa 0,0 l/m 0 min 0 min 0 W/m 6,4 km/h (2 Bft) 100,00 %
01.09.2019 06:40 17,1 C 16,7 C 16,7 C 89 % 1012,1 hPa 0,0 l/m 0 min 0 min 0 W/m 3,2 km/h (1 Bft) 100,00 %
01.09.2019 06:42 17,1 C 16,7 C 16,7 C 89 % 1012,1 hPa 0,0 l/m 0 min 0 min 0 W/m 6,4 km/h (2 Bft) 100,00 %
01.09.2019 06:44 17,2 C 16,7 C 16,7 C 89 % 1012,2 hPa 0,0 l/m 0 min 0 min 0 W/m 3,2 km/h (1 Bft) 100,00 %
01.09.2019 06:46 17,1 C 16,7 C 16,7 C 89 % 1012,2 hPa 0,0 l/m 0 min 0 min 0 W/m 16,1 km/h (3 Bft) 95,74 %
01.09.2019 06:48 17,2 C 16,7 C 16,7 C 89 % 1012,2 hPa 0,0 l/m 0 min 0 min 0 W/m 3,2 km/h (1 Bft) 100,00 %
01.09.2019 06:50 17,2 C 16,7 C 16,7 C 89 % 1012,2 hPa 0,0 l/m 0 min 0 min 0 W/m 12,9 km/h (3 Bft) 100,00 %
01.09.2019 06:52 17,2 C 16,7 C 16,7 C 89 % 1012,1 hPa 0,0 l/m 0 min 0 min 0 W/m 6,4 km/h (2 Bft) 97,87 %
01.09.2019 06:54 17,2 C 16,7 C 16,7 C 89 % 1012,1 hPa 0,0 l/m 0 min 0 min 0 W/m 3,2 km/h (1 Bft) 100,00 %
01.09.2019 06:56 17,2 C 16,1 C 16,7 C 89 % 1012,1 hPa 0,0 l/m 0 min 0 min 4 W/m 12,9 km/h (3 Bft) 100,00 %
01.09.2019 06:58 17,2 C 16,1 C 16,7 C 88 % 1012,2 hPa 0,0 l/m 0 min 0 min 6 W/m 3,2 km/h (1 Bft) 97,87 %
01.09.2019 07:00 17,2 C 16,1 C 16,7 C 88 % 1012,2 hPa 0,0 l/m 0 min 0 min 8 W/m 9,7 km/h (2 Bft) 100,00 %
01.09.2019 07:02 17,2 C 16,1 C 16,1 C 88 % 1012,2 hPa 0,0 l/m 0 min 0 min 9 W/m 12,9 km/h (3 Bft) 95,74 %
01.09.2019 07:04 17,2 C 16,1 C 16,1 C 88 % 1012,3 hPa 0,0 l/m 0 min 0 min 12 W/m 0,0 km/h (0 Bft) 100,00 %
01.09.2019 07:06 17,2 C 16,1 C 16,1 C 88 % 1012,3 hPa 0,0 l/m 0 min 0 min 13 W/m 3,2 km/h (1 Bft) 97,87 %
01.09.2019 07:08 17,2 C 16,1 C 16,1 C 89 % 1012,3 hPa 0,0 l/m 0 min 2 min 14 W/m 9,7 km/h (2 Bft) 97,87 %
01.09.2019 07:10 17,2 C 16,7 C 16,1 C 89 % 1012,4 hPa 0,0 l/m 0 min 2 min 16 W/m 9,7 km/h (2 Bft) 97,83 %
01.09.2019 07:12 17,2 C 16,1 C 16,1 C 89 % 1012,4 hPa 0,0 l/m 0 min 2 min 19 W/m 3,2 km/h (1 Bft) 100,00 %
01.09.2019 07:14 17,2 C 16,1 C 16,1 C 89 % 1012,5 hPa 0,0 l/m 0 min 2 min 17 W/m 6,4 km/h (2 Bft) 100,00 %
01.09.2019 07:16 17,2 C 16,1 C 16,1 C 89 % 1012,4 hPa 0,0 l/m 0 min 0 min 16 W/m 3,2 km/h (1 Bft) 95,74 %
01.09.2019 07:18 17,2 C 16,1 C 16,1 C 89 % 1012,4 hPa 0,0 l/m 0 min 0 min 13 W/m 3,2 km/h (1 Bft) 97,87 %
01.09.2019 07:20 17,2 C 16,1 C 16,1 C 89 % 1012,4 hPa 0,0 l/m 0 min 0 min 12 W/m 3,2 km/h (1 Bft) 97,87 %
01.09.2019 07:22 17,2 C 16,1 C 16,1 C 89 % 1012,4 hPa 0,0 l/m 0 min 0 min 11 W/m 3,2 km/h (1 Bft) 97,83 %
01.09.2019 07:24 17,2 C 16,1 C 16,1 C 89 % 1012,4 hPa 0,0 l/m 0 min 0 min 8 W/m 6,4 km/h (2 Bft) 97,87 %
01.09.2019 07:26 17,2 C 16,1 C 16,1 C 89 % 1012,4 hPa 0,0 l/m 0 min 0 min 7 W/m 3,2 km/h (1 Bft) 95,74 %
01.09.2019 07:28 17,2 C 16,1 C 16,1 C 89 % 1012,5 hPa 0,0 l/m 0 min 0 min 5 W/m 6,4 km/h (2 Bft) 95,74 %
01.09.2019 07:30 17,2 C 16,1 C 16,1 C 89 % 1012,6 hPa 0,0 l/m 0 min 0 min 5 W/m 3,2 km/h (1 Bft) 93,62 %
01.09.2019 07:32 17,2 C 16,1 C 16,1 C 89 % 1012,6 hPa 0,0 l/m 0 min 0 min 5 W/m 3,2 km/h (1 Bft) 95,65 %
01.09.2019 07:34 17,2 C 16,1 C 16,1 C 89 % 1012,6 hPa 0,0 l/m 0 min 0 min 7 W/m 3,2 km/h (1 Bft) 93,48 %
01.09.2019 07:36 17,2 C 16,1 C 16,1 C 89 % 1012,6 hPa 0,0 l/m 0 min 0 min 7 W/m 6,4 km/h (2 Bft) 87,23 %
01.09.2019 07:38 17,2 C 16,1 C 16,1 C 89 % 1012,5 hPa 0,0 l/m 0 min 0 min 8 W/m 0,0 km/h (0 Bft) 94,00 %
01.09.2019 07:40 17,2 C 16,1 C 16,7 C 89 % 1012,6 hPa 0,0 l/m 0 min 0 min 9 W/m 3,2 km/h (1 Bft) 93,62 %
01.09.2019 07:42 17,2 C 16,1 C 16,1 C 89 % 1012,6 hPa 0,0 l/m 0 min 0 min 9 W/m 9,7 km/h (2 Bft) 93,62 %
01.09.2019 07:44 17,1 C 16,1 C 16,1 C 89 % 1012,7 hPa 0,0 l/m 0 min 0 min 11 W/m 0,0 km/h (0 Bft) 93,48 %
01.09.2019 07:46 17,2 C 16,7 C 16,7 C 89 % 1012,8 hPa 0,0 l/m 0 min 0 min 12 W/m 6,4 km/h (2 Bft) 91,49 %
01.09.2019 07:48 17,2 C 16,1 C 16,7 C 89 % 1012,8 hPa 0,0 l/m 0 min 0 min 12 W/m 6,4 km/h (2 Bft) 93,62 %
01.09.2019 07:50 17,2 C 16,1 C 16,1 C 89 % 1012,8 hPa 0,0 l/m 0 min 0 min 12 W/m 6,4 km/h (2 Bft) 93,62 %
01.09.2019 07:52 17,1 C 16,1 C 16,1 C 89 % 1012,8 hPa 0,0 l/m 0 min 0 min 12 W/m 16,1 km/h (3 Bft) 91,49 %
01.09.2019 07:54 17,1 C 16,1 C 16,1 C 89 % 1012,8 hPa 0,0 l/m 0 min 0 min 16 W/m 6,4 km/h (2 Bft) 93,62 %
01.09.2019 07:56 17,1 C 16,1 C 16,1 C 89 % 1012,9 hPa 0,0 l/m 0 min 0 min 19 W/m 3,2 km/h (1 Bft) 93,48 %
01.09.2019 07:58 17,1 C 16,1 C 16,1 C 89 % 1013,0 hPa 0,0 l/m 0 min 0 min 19 W/m 6,4 km/h (2 Bft) 93,62 %
01.09.2019 08:00 17,1 C 16,1 C 16,1 C 89 % 1013,1 hPa 0,0 l/m 0 min 0 min 17 W/m 16,1 km/h (3 Bft) 91,49 %
01.09.2019 08:02 17,1 C 16,1 C 16,1 C 89 % 1013,1 hPa 0,0 l/m 0 min 0 min 14 W/m 12,9 km/h (3 Bft) 93,62 %
01.09.2019 08:04 17,1 C 16,1 C 16,1 C 89 % 1013,1 hPa 0,0 l/m 0 min 0 min 12 W/m 3,2 km/h (1 Bft) 93,62 %
01.09.2019 08:06 17,1 C 16,1 C 16,1 C 89 % 1013,2 hPa 0,0 l/m 0 min 0 min 14 W/m 3,2 km/h (1 Bft) 95,74 %
01.09.2019 08:08 17,1 C 16,1 C 16,1 C 89 % 1013,2 hPa 0,0 l/m 0 min 0 min 14 W/m 3,2 km/h (1 Bft) 93,48 %
01.09.2019 08:10 17,1 C 16,1 C 16,1 C 89 % 1013,2 hPa 0,0 l/m 0 min 0 min 13 W/m 6,4 km/h (2 Bft) 95,74 %
01.09.2019 08:12 17,1 C 16,1 C 16,1 C 89 % 1013,1 hPa 0,0 l/m 0 min 0 min 12 W/m 0,0 km/h (0 Bft) 91,49 %
01.09.2019 08:14 17,1 C 16,1 C 16,1 C 89 % 1013,2 hPa 0,0 l/m 0 min 0 min 15 W/m 3,2 km/h (1 Bft) 95,74 %
01.09.2019 08:16 17,1 C 16,1 C 16,1 C 89 % 1013,2 hPa 0,0 l/m 0 min 0 min 18 W/m 6,4 km/h (2 Bft) 93,62 %
01.09.2019 08:18 17,1 C 16,1 C 16,1 C 89 % 1013,3 hPa 0,0 l/m 0 min 0 min 20 W/m 3,2 km/h (1 Bft) 95,74 %
01.09.2019 08:20 17,1 C 16,1 C 16,1 C 89 % 1013,2 hPa 0,0 l/m 0 min 0 min 27 W/m 9,7 km/h (2 Bft) 95,65 %
01.09.2019 08:22 17,1 C 16,1 C 16,1 C 89 % 1013,2 hPa 0,0 l/m 0 min 0 min 32 W/m 0,0 km/h (0 Bft) 93,62 %
01.09.2019 08:24 17,1 C 16,7 C 16,1 C 89 % 1013,2 hPa 0,0 l/m 0 min 0 min 35 W/m 0,0 km/h (0 Bft) 97,87 %
01.09.2019 08:26 17,1 C 16,7 C 16,1 C 89 % 1013,3 hPa 0,0 l/m 0 min 0 min 37 W/m 3,2 km/h (1 Bft) 95,74 %
01.09.2019 08:28 17,1 C 16,7 C 16,1 C 89 % 1013,3 hPa 0,0 l/m 0 min 0 min 38 W/m 3,2 km/h (1 Bft) 97,87 %
01.09.2019 08:30 17,1 C 16,7 C 16,1 C 89 % 1013,4 hPa 0,0 l/m 0 min 0 min 39 W/m 0,0 km/h (0 Bft) 100,00 %
01.09.2019 08:32 17,1 C 16,7 C 16,1 C 89 % 1013,4 hPa 0,0 l/m 0 min 0 min 36 W/m 3,2 km/h (1 Bft) 100,00 %
01.09.2019 08:34 17,1 C 16,7 C 16,1 C 89 % 1013,4 hPa 0,0 l/m 0 min 0 min 33 W/m 3,2 km/h (1 Bft) 100,00 %
01.09.2019 08:36 17,1 C 16,7 C 16,7 C 89 % 1013,4 hPa 0,0 l/m 0 min 0 min 36 W/m 3,2 km/h (1 Bft) 97,87 %
01.09.2019 08:38 17,1 C 16,7 C 16,7 C 89 % 1013,5 hPa 0,0 l/m 0 min 0 min 40 W/m 0,0 km/h (0 Bft) 100,00 %
01.09.2019 08:40 17,1 C 16,7 C 16,7 C 89 % 1013,5 hPa 0,0 l/m 0 min 0 min 44 W/m 16,1 km/h (3 Bft) 100,00 %
01.09.2019 08:42 17,1 C 16,7 C 16,7 C 89 % 1013,6 hPa 0,0 l/m 0 min 0 min 46 W/m 9,7 km/h (2 Bft) 100,00 %
01.09.2019 08:44 17,1 C 16,7 C 16,7 C 89 % 1013,6 hPa 0,0 l/m 0 min 0 min 39 W/m 3,2 km/h (1 Bft) 100,00 %
01.09.2019 08:46 17,1 C 16,7 C 16,7 C 89 % 1013,6 hPa 0,0 l/m 0 min 0 min 36 W/m 6,4 km/h (2 Bft) 97,87 %
01.09.2019 08:48 17,1 C 16,7 C 16,7 C 89 % 1013,6 hPa 0,0 l/m 0 min 0 min 38 W/m 3,2 km/h (1 Bft) 100,00 %
01.09.2019 08:50 17,0 C 16,7 C 16,7 C 89 % 1013,6 hPa 0,0 l/m 0 min 0 min 33 W/m 0,0 km/h (0 Bft) 100,00 %
01.09.2019 08:52 17,1 C 16,7 C 16,1 C 89 % 1013,6 hPa 0,0 l/m 0 min 0 min 24 W/m 6,4 km/h (2 Bft) 100,00 %
01.09.2019 08:54 17,1 C 16,7 C 16,1 C 89 % 1013,6 hPa 0,0 l/m 0 min 0 min 21 W/m 0,0 km/h (0 Bft) 100,00 %
01.09.2019 08:56 17,1 C 16,7 C 16,1 C 89 % 1013,6 hPa 0,0 l/m 0 min 0 min 23 W/m 0,0 km/h (0 Bft) 100,00 %
01.09.2019 08:58 17,1 C 16,7 C 16,1 C 89 % 1013,7 hPa 0,0 l/m 0 min 0 min 27 W/m 0,0 km/h (0 Bft) 100,00 %
01.09.2019 09:00 17,1 C 16,7 C 16,7 C 89 % 1013,7 hPa 0,0 l/m 0 min 0 min 36 W/m 0,0 km/h (0 Bft) 100,00 %
01.09.2019 09:02 17,1 C 16,7 C 16,7 C 89 % 1013,7 hPa 0,0 l/m 0 min 0 min 46 W/m 0,0 km/h (0 Bft) 100,00 %
01.09.2019 09:04 17,1 C 16,7 C 16,7 C 89 % 1013,7 hPa 0,0 l/m 0 min 0 min 48 W/m 3,2 km/h (1 Bft) 100,00 %
01.09.2019 09:06 17,1 C 16,7 C 16,7 C 89 % 1013,8 hPa 0,0 l/m 0 min 0 min 52 W/m 0,0 km/h (0 Bft) 100,00 %
01.09.2019 09:08 17,1 C 16,7 C 16,7 C 89 % 1013,8 hPa 0,0 l/m 0 min 0 min 56 W/m 6,4 km/h (2 Bft) 100,00 %
01.09.2019 09:10 17,1 C 16,7 C 16,7 C 89 % 1013,9 hPa 0,0 l/m 0 min 0 min 60 W/m 3,2 km/h (1 Bft) 100,00 %
01.09.2019 09:12 17,1 C 16,7 C 16,7 C 89 % 1013,9 hPa 0,0 l/m 0 min 0 min 64 W/m 0,0 km/h (0 Bft) 100,00 %
01.09.2019 09:14 17,2 C 17,2 C 16,7 C 89 % 1013,8 hPa 0,0 l/m 0 min 0 min 70 W/m 3,2 km/h (1 Bft) 100,00 %
01.09.2019 09:16 17,2 C 17,2 C 16,7 C 89 % 1013,9 hPa 0,0 l/m 0 min 0 min 74 W/m 3,2 km/h (1 Bft) 100,00 %
01.09.2019 09:18 17,2 C 17,2 C 16,7 C 89 % 1013,9 hPa 0,0 l/m 0 min 0 min 87 W/m 0,0 km/h (0 Bft) 100,00 %
01.09.2019 09:20 17,2 C 17,8 C 17,2 C 89 % 1013,9 hPa 0,0 l/m 0 min 0 min 106 W/m 0,0 km/h (0 Bft) 100,00 %
01.09.2019 09:22 17,3 C 17,8 C 17,2 C 89 % 1014,0 hPa 0,0 l/m 0 min 0 min 124 W/m 0,0 km/h (0 Bft) 100,00 %
01.09.2019 09:24 17,3 C 17,8 C 17,2 C 89 % 1014,0 hPa 0,0 l/m 0 min 0 min 131 W/m 6,4 km/h (2 Bft) 100,00 %
01.09.2019 09:26 17,3 C 18,3 C 17,2 C 89 % 1014,0 hPa 0,0 l/m 0 min 0 min 146 W/m 3,2 km/h (1 Bft) 97,87 %
01.09.2019 09:28 17,3 C 18,3 C 17,8 C 89 % 1014,1 hPa 0,0 l/m 0 min 0 min 177 W/m 6,4 km/h (2 Bft) 100,00 %
01.09.2019 09:30 17,4 C 18,9 C 17,8 C 89 % 1014,0 hPa 0,0 l/m 2 min 0 min 208 W/m 3,2 km/h (1 Bft) 100,00 %
01.09.2019 09:32 17,4 C 18,9 C 18,3 C 89 % 1014,0 hPa 0,0 l/m 2 min 0 min 217 W/m 9,7 km/h (2 Bft) 100,00 %
01.09.2019 09:34 17,5 C 19,4 C 18,3 C 88 % 1014,1 hPa 0,0 l/m 2 min 0 min 216 W/m 6,4 km/h (2 Bft) 100,00 %
01.09.2019 09:36 17,6 C 19,4 C 18,3 C 88 % 1014,1 hPa 0,0 l/m 0 min 0 min 198 W/m 0,0 km/h (0 Bft) 97,87 %
01.09.2019 09:38 17,6 C 19,4 C 18,3 C 88 % 1014,2 hPa 0,0 l/m 0 min 0 min 196 W/m 0,0 km/h (0 Bft) 100,00 %
01.09.2019 09:40 17,7 C 19,4 C 18,3 C 88 % 1014,3 hPa 0,0 l/m 0 min 0 min 186 W/m 0,0 km/h (0 Bft) 100,00 %
01.09.2019 09:42 17,8 C 19,4 C 18,3 C 88 % 1014,4 hPa 0,0 l/m 0 min 0 min 182 W/m 9,7 km/h (2 Bft) 97,87 %
01.09.2019 09:44 17,8 C 19,4 C 18,3 C 87 % 1014,4 hPa 0,0 l/m 0 min 0 min 181 W/m 3,2 km/h (1 Bft) 100,00 %
01.09.2019 09:46 17,8 C 18,9 C 18,3 C 87 % 1014,4 hPa 0,0 l/m 0 min 0 min 177 W/m 6,4 km/h (2 Bft) 100,00 %
01.09.2019 09:48 17,9 C 18,9 C 18,3 C 87 % 1014,5 hPa 0,0 l/m 0 min 0 min 154 W/m 16,1 km/h (3 Bft) 97,83 %
01.09.2019 09:50 17,9 C 18,9 C 18,3 C 86 % 1014,6 hPa 0,0 l/m 0 min 0 min 129 W/m 3,2 km/h (1 Bft) 100,00 %
01.09.2019 09:52 18,0 C 18,3 C 17,8 C 86 % 1014,6 hPa 0,0 l/m 0 min 0 min 113 W/m 3,2 km/h (1 Bft) 100,00 %
01.09.2019 09:54 18,0 C 18,3 C 17,8 C 86 % 1014,6 hPa 0,0 l/m 0 min 0 min 106 W/m 3,2 km/h (1 Bft) 97,87 %
01.09.2019 09:56 18,1 C 18,3 C 17,8 C 86 % 1014,5 hPa 0,0 l/m 0 min 0 min 109 W/m 0,0 km/h (0 Bft) 100,00 %
01.09.2019 09:58 18,1 C 18,3 C 17,8 C 85 % 1014,5 hPa 0,0 l/m 0 min 0 min 113 W/m 0,0 km/h (0 Bft) 95,74 %
01.09.2019 10:00 18,1 C 18,3 C 17,8 C 85 % 1014,6 hPa 0,0 l/m 0 min 0 min 113 W/m 3,2 km/h (1 Bft) 95,65 %
01.09.2019 10:02 18,1 C 18,3 C 17,8 C 85 % 1014,6 hPa 0,0 l/m 0 min 0 min 110 W/m 3,2 km/h (1 Bft) 97,87 %
01.09.2019 10:04 18,2 C 18,3 C 17,8 C 85 % 1014,7 hPa 0,0 l/m 0 min 0 min 112 W/m 3,2 km/h (1 Bft) 97,87 %
01.09.2019 10:06 18,2 C 18,3 C 17,8 C 85 % 1014,7 hPa 0,0 l/m 0 min 0 min 121 W/m 3,2 km/h (1 Bft) 97,87 %
01.09.2019 10:08 18,2 C 18,3 C 17,8 C 85 % 1014,6 hPa 0,0 l/m 0 min 0 min 136 W/m 3,2 km/h (1 Bft) 97,87 %
01.09.2019 10:10 18,2 C 18,9 C 17,8 C 85 % 1014,7 hPa 0,0 l/m 0 min 0 min 153 W/m 3,2 km/h (1 Bft) 95,65 %
01.09.2019 10:12 18,2 C 18,9 C 17,8 C 85 % 1014,8 hPa 0,0 l/m 0 min 0 min 172 W/m 9,7 km/h (2 Bft) 97,87 %
01.09.2019 10:14 18,2 C 18,3 C 17,8 C 84 % 1014,8 hPa 0,0 l/m 0 min 0 min 157 W/m 9,7 km/h (2 Bft) 97,87 %
01.09.2019 10:16 18,2 C 18,9 C 18,3 C 84 % 1014,8 hPa 0,0 l/m 0 min 0 min 158 W/m 6,4 km/h (2 Bft) 95,74 %
01.09.2019 10:18 18,2 C 18,9 C 18,3 C 84 % 1014,8 hPa 0,0 l/m 0 min 0 min 169 W/m 0,0 km/h (0 Bft) 97,87 %
01.09.2019 10:20 18,2 C 18,9 C 18,3 C 84 % 1014,8 hPa 0,0 l/m 0 min 0 min 168 W/m 3,2 km/h (1 Bft) 95,74 %
01.09.2019 10:22 18,2 C 18,9 C 18,3 C 84 % 1014,9 hPa 0,0 l/m 0 min 0 min 162 W/m 0,0 km/h (0 Bft) 95,65 %
01.09.2019 10:24 18,2 C 18,9 C 18,3 C 84 % 1014,9 hPa 0,0 l/m 0 min 0 min 156 W/m 3,2 km/h (1 Bft) 95,74 %
01.09.2019 10:26 18,3 C 18,9 C 18,3 C 84 % 1015,0 hPa 0,0 l/m 0 min 0 min 155 W/m 0,0 km/h (0 Bft) 97,87 %
01.09.2019 10:28 18,3 C 18,9 C 18,3 C 84 % 1015,0 hPa 0,0 l/m 0 min 0 min 158 W/m 0,0 km/h (0 Bft) 97,87 %
01.09.2019 10:30 18,3 C 18,9 C 18,3 C 83 % 1014,9 hPa 0,0 l/m 0 min 0 min 169 W/m 0,0 km/h (0 Bft) 95,74 %
01.09.2019 10:32 18,3 C 18,9 C 18,3 C 83 % 1014,9 hPa 0,0 l/m 0 min 0 min 179 W/m 0,0 km/h (0 Bft) 93,62 %
01.09.2019 10:34 18,3 C 19,4 C 18,3 C 83 % 1014,9 hPa 0,0 l/m 0 min 0 min 197 W/m 0,0 km/h (0 Bft) 95,65 %
01.09.2019 10:36 18,4 C 20,0 C 18,9 C 83 % 1015,0 hPa 0,0 l/m 0 min 0 min 220 W/m 6,4 km/h (2 Bft) 97,87 %
01.09.2019 10:38 18,4 C 20,0 C 18,9 C 83 % 1015,0 hPa 0,0 l/m 0 min 0 min 255 W/m 3,2 km/h (1 Bft) 98,18 %
01.09.2019 10:40 18,4 C 21,1 C 20,0 C 83 % 1015,1 hPa 0,0 l/m 2 min 0 min 322 W/m 9,7 km/h (2 Bft) 97,83 %
01.09.2019 10:42 18,6 C 21,7 C 20,6 C 83 % 1015,1 hPa 0,0 l/m 2 min 0 min 344 W/m 0,0 km/h (0 Bft) 97,87 %
01.09.2019 10:44 18,6 C 21,7 C 20,6 C 83 % 1015,1 hPa 0,0 l/m 2 min 0 min 307 W/m 3,2 km/h (1 Bft) 95,74 %
01.09.2019 10:46 18,7 C 22,2 C 21,1 C 83 % 1015,2 hPa 0,0 l/m 2 min 0 min 322 W/m 3,2 km/h (1 Bft) 93,62 %
01.09.2019 10:48 18,8 C 22,8 C 21,7 C 83 % 1015,1 hPa 0,0 l/m 2 min 0 min 402 W/m 12,9 km/h (3 Bft) 95,74 %
01.09.2019 10:50 18,9 C 23,9 C 22,2 C 82 % 1015,0 hPa 0,0 l/m 2 min 0 min 404 W/m 6,4 km/h (2 Bft) 95,74 %
01.09.2019 10:52 19,0 C 25,0 C 23,3 C 82 % 1015,2 hPa 0,0 l/m 2 min 0 min 481 W/m 6,4 km/h (2 Bft) 95,65 %
01.09.2019 10:54 19,2 C 25,0 C 23,3 C 81 % 1015,3 hPa 0,0 l/m 2 min 0 min 490 W/m 9,7 km/h (2 Bft) 93,62 %
01.09.2019 10:56 19,3 C 23,3 C 22,2 C 80 % 1015,2 hPa 0,0 l/m 2 min 0 min 334 W/m 6,4 km/h (2 Bft) 95,74 %
01.09.2019 10:58 19,4 C 22,8 C 21,1 C 79 % 1015,0 hPa 0,0 l/m 2 min 0 min 293 W/m 6,4 km/h (2 Bft) 95,74 %
01.09.2019 11:00 19,5 C 22,8 C 21,1 C 78 % 1015,0 hPa 0,0 l/m 2 min 0 min 343 W/m 12,9 km/h (3 Bft) 95,74 %
01.09.2019 11:02 19,6 C 23,9 C 22,2 C 78 % 1015,2 hPa 0,0 l/m 2 min 0 min 417 W/m 6,4 km/h (2 Bft) 95,74 %
01.09.2019 11:04 19,7 C 25,0 C 23,3 C 78 % 1015,2 hPa 0,0 l/m 2 min 0 min 528 W/m 9,7 km/h (2 Bft) 91,30 %
01.09.2019 11:06 19,8 C 23,9 C 22,2 C 77 % 1015,3 hPa 0,0 l/m 2 min 0 min 530 W/m 16,1 km/h (3 Bft) 95,74 %
01.09.2019 11:08 19,9 C 23,3 C 21,7 C 76 % 1015,3 hPa 0,0 l/m 2 min 0 min 326 W/m 12,9 km/h (3 Bft) 95,74 %
01.09.2019 11:10 19,9 C 22,2 C 21,1 C 76 % 1015,4 hPa 0,0 l/m 2 min 0 min 333 W/m 9,7 km/h (2 Bft) 95,74 %
01.09.2019 11:12 20,0 C 22,2 C 20,6 C 75 % 1015,4 hPa 0,0 l/m 2 min 0 min 316 W/m 9,7 km/h (2 Bft) 95,74 %
01.09.2019 11:14 20,0 C 22,2 C 20,6 C 75 % 1015,4 hPa 0,0 l/m 2 min 0 min 308 W/m 6,4 km/h (2 Bft) 93,62 %
01.09.2019 11:16 20,0 C 22,2 C 20,6 C 75 % 1015,3 hPa 0,0 l/m 2 min 0 min 318 W/m 6,4 km/h (2 Bft) 95,65 %
01.09.2019 11:18 20,1 C 22,2 C 20,6 C 75 % 1015,3 hPa 0,0 l/m 2 min 0 min 334 W/m 0,0 km/h (0 Bft) 95,74 %
01.09.2019 11:20 20,1 C 22,8 C 20,6 C 75 % 1015,4 hPa 0,0 l/m 2 min 0 min 344 W/m 6,4 km/h (2 Bft) 95,74 %
01.09.2019 11:22 20,2 C 22,8 C 21,1 C 75 % 1015,4 hPa 0,0 l/m 2 min 0 min 354 W/m 3,2 km/h (1 Bft) 95,74 %
01.09.2019 11:24 20,2 C 22,8 C 21,1 C 75 % 1015,4 hPa 0,0 l/m 2 min 0 min 316 W/m 6,4 km/h (2 Bft) 95,74 %
01.09.2019 11:26 20,2 C 22,2 C 20,6 C 74 % 1015,3 hPa 0,0 l/m 0 min 0 min 292 W/m 6,4 km/h (2 Bft) 95,65 %
01.09.2019 11:28 20,2 C 21,7 C 20,6 C 74 % 1015,2 hPa 0,0 l/m 0 min 0 min 285 W/m 12,9 km/h (3 Bft) 93,62 %
01.09.2019 11:30 20,2 C 21,7 C 20,6 C 74 % 1015,3 hPa 0,0 l/m 0 min 0 min 300 W/m 12,9 km/h (3 Bft) 95,74 %
01.09.2019 11:32 20,2 C 22,2 C 20,6 C 74 % 1015,4 hPa 0,0 l/m 0 min 0 min 302 W/m 6,4 km/h (2 Bft) 95,74 %
01.09.2019 11:34 20,2 C 22,2 C 20,6 C 74 % 1015,4 hPa 0,0 l/m 2 min 0 min 341 W/m 22,5 km/h (4 Bft) 95,74 %
01.09.2019 11:36 20,2 C 22,8 C 20,6 C 74 % 1015,5 hPa 0,0 l/m 2 min 0 min 384 W/m 9,7 km/h (2 Bft) 95,74 %
01.09.2019 11:38 20,2 C 22,2 C 20,6 C 73 % 1015,5 hPa 0,0 l/m 2 min 0 min 426 W/m 9,7 km/h (2 Bft) 97,87 %
01.09.2019 11:40 20,2 C 22,2 C 20,6 C 73 % 1015,4 hPa 0,0 l/m 2 min 0 min 334 W/m 6,4 km/h (2 Bft) 97,83 %
01.09.2019 11:42 20,3 C 22,2 C 20,6 C 73 % 1015,4 hPa 0,0 l/m 2 min 0 min 348 W/m 9,7 km/h (2 Bft) 97,87 %
01.09.2019 11:44 20,3 C 23,9 C 20,6 C 73 % 1015,4 hPa 0,0 l/m 2 min 0 min 374 W/m 9,7 km/h (2 Bft) 97,87 %
01.09.2019 11:46 20,3 C 23,9 C 21,1 C 73 % 1015,4 hPa 0,0 l/m 2 min 0 min 560 W/m 6,4 km/h (2 Bft) 97,87 %
01.09.2019 11:48 20,4 C 25,0 C 21,1 C 73 % 1015,5 hPa 0,0 l/m 2 min 0 min 485 W/m 9,7 km/h (2 Bft) 97,87 %
01.09.2019 11:50 20,5 C 26,1 C 21,7 C 73 % 1015,5 hPa 0,0 l/m 2 min 0 min 493 W/m 9,7 km/h (2 Bft) 97,83 %
01.09.2019 11:52 20,7 C 26,7 C 22,2 C 73 % 1015,5 hPa 0,0 l/m 2 min 0 min 679 W/m 9,7 km/h (2 Bft) 97,87 %
01.09.2019 11:54 20,8 C 25,0 C 21,7 C 71 % 1015,4 hPa 0,0 l/m 2 min 0 min 423 W/m 16,1 km/h (3 Bft) 100,00 %
01.09.2019 11:56 20,8 C 23,9 C 21,1 C 70 % 1015,5 hPa 0,0 l/m 2 min 0 min 386 W/m 9,7 km/h (2 Bft) 100,00 %
01.09.2019 11:58 20,9 C 23,3 C 21,1 C 70 % 1015,5 hPa 0,0 l/m 2 min 0 min 366 W/m 16,1 km/h (3 Bft) 100,00 %
01.09.2019 12:00 20,9 C 23,9 C 21,7 C 71 % 1015,5 hPa 0,0 l/m 2 min 0 min 367 W/m 9,7 km/h (2 Bft) 100,00 %
01.09.2019 12:02 20,9 C 23,3 C 21,1 C 71 % 1015,5 hPa 0,0 l/m 0 min 0 min 298 W/m 9,7 km/h (2 Bft) 97,83 %
01.09.2019 12:04 21,0 C 22,8 C 21,1 C 72 % 1015,5 hPa 0,0 l/m 0 min 0 min 249 W/m 6,4 km/h (2 Bft) 100,00 %
01.09.2019 12:08 20,9 C 22,2 C 20,6 C 70 % 1015,7 hPa 0,0 l/m 0 min 0 min 272 W/m 16,1 km/h (3 Bft) 100,00 %
01.09.2019 12:10 20,8 C 21,7 C 20,6 C 70 % 1015,7 hPa 0,0 l/m 0 min 0 min 297 W/m 16,1 km/h (3 Bft) 100,00 %
01.09.2019 12:12 20,8 C 21,7 C 20,6 C 70 % 1015,7 hPa 0,0 l/m 0 min 0 min 289 W/m 12,9 km/h (3 Bft) 100,00 %
01.09.2019 12:14 20,7 C 21,7 C 20,6 C 70 % 1015,6 hPa 0,0 l/m 0 min 0 min 308 W/m 9,7 km/h (2 Bft) 100,00 %
01.09.2019 12:16 20,7 C 21,7 C 20,6 C 70 % 1015,6 hPa 0,0 l/m 2 min 0 min 354 W/m 9,7 km/h (2 Bft) 97,87 %
01.09.2019 12:18 20,7 C 23,3 C 20,6 C 70 % 1015,6 hPa 0,0 l/m 2 min 0 min 522 W/m 9,7 km/h (2 Bft) 100,00 %
01.09.2019 12:20 20,7 C 25,0 C 21,1 C 71 % 1015,7 hPa 0,0 l/m 2 min 0 min 568 W/m 12,9 km/h (3 Bft) 97,87 %
01.09.2019 12:22 20,8 C 23,9 C 21,1 C 71 % 1015,7 hPa 0,0 l/m 2 min 0 min 528 W/m 9,7 km/h (2 Bft) 100,00 %
01.09.2019 12:24 20,8 C 23,9 C 21,1 C 71 % 1015,7 hPa 0,0 l/m 2 min 0 min 478 W/m 12,9 km/h (3 Bft) 97,83 %
01.09.2019 12:26 20,8 C 23,9 C 21,1 C 70 % 1015,7 hPa 0,0 l/m 2 min 0 min 465 W/m 16,1 km/h (3 Bft) 97,87 %
01.09.2019 12:28 20,9 C 24,4 C 21,7 C 70 % 1015,8 hPa 0,0 l/m 2 min 0 min 467 W/m 9,7 km/h (2 Bft) 97,87 %
01.09.2019 12:30 20,9 C 26,1 C 21,7 C 71 % 1015,7 hPa 0,0 l/m 2 min 0 min 394 W/m 9,7 km/h (2 Bft) 95,74 %
01.09.2019 12:32 21,0 C 25,6 C 21,7 C 70 % 1015,7 hPa 0,0 l/m 2 min 0 min 472 W/m 12,9 km/h (3 Bft) 97,87 %
01.09.2019 12:34 21,1 C 26,1 C 22,2 C 71 % 1015,7 hPa 0,0 l/m 2 min 0 min 543 W/m 6,4 km/h (2 Bft) 97,87 %
01.09.2019 12:36 21,2 C 26,1 C 22,2 C 70 % 1015,7 hPa 0,0 l/m 2 min 0 min 418 W/m 12,9 km/h (3 Bft) 95,65 %
01.09.2019 12:38 21,3 C 25,6 C 22,2 C 69 % 1015,7 hPa 0,0 l/m 2 min 0 min 438 W/m 12,9 km/h (3 Bft) 97,92 %
01.09.2019 12:40 21,4 C 26,1 C 22,8 C 70 % 1015,7 hPa 0,0 l/m 2 min 0 min 438 W/m 6,4 km/h (2 Bft) 97,87 %
01.09.2019 12:42 21,4 C 26,1 C 22,2 C 70 % 1015,8 hPa 0,0 l/m 2 min 0 min 475 W/m 9,7 km/h (2 Bft) 97,87 %
01.09.2019 12:44 21,6 C 26,7 C 22,8 C 69 % 1015,9 hPa 0,0 l/m 2 min 0 min 483 W/m 22,5 km/h (4 Bft) 95,74 %
01.09.2019 12:46 21,7 C 26,1 C 22,8 C 69 % 1015,8 hPa 0,0 l/m 2 min 0 min 484 W/m 6,4 km/h (2 Bft) 95,74 %
01.09.2019 12:48 21,7 C 25,0 C 22,8 C 69 % 1015,8 hPa 0,0 l/m 2 min 0 min 418 W/m 6,4 km/h (2 Bft) 97,87 %
01.09.2019 12:50 21,8 C 24,4 C 22,2 C 68 % 1015,8 hPa 0,0 l/m 0 min 0 min 338 W/m 9,7 km/h (2 Bft) 97,83 %
01.09.2019 12:52 21,8 C 23,3 C 21,7 C 68 % 1015,8 hPa 0,0 l/m 0 min 0 min 293 W/m 3,2 km/h (1 Bft) 97,87 %
01.09.2019 12:54 21,8 C 22,2 C 21,7 C 68 % 1015,8 hPa 0,0 l/m 0 min 0 min 215 W/m 6,4 km/h (2 Bft) 97,87 %
01.09.2019 12:56 21,8 C 21,7 C 21,1 C 68 % 1015,7 hPa 0,0 l/m 0 min 0 min 190 W/m 6,4 km/h (2 Bft) 97,87 %
01.09.2019 12:58 21,7 C 21,1 C 20,6 C 67 % 1015,8 hPa 0,0 l/m 0 min 0 min 185 W/m 12,9 km/h (3 Bft) 97,87 %
01.09.2019 13:00 21,6 C 21,1 C 20,6 C 67 % 1015,8 hPa 0,0 l/m 0 min 0 min 180 W/m 9,7 km/h (2 Bft) 97,87 %
01.09.2019 13:02 21,5 C 20,6 C 20,0 C 67 % 1015,7 hPa 0,0 l/m 0 min 0 min 181 W/m 12,9 km/h (3 Bft) 97,83 %
01.09.2019 13:04 21,4 C 20,6 C 20,0 C 67 % 1015,8 hPa 0,0 l/m 0 min 0 min 190 W/m 12,9 km/h (3 Bft) 100,00 %
01.09.2019 13:06 21,3 C 20,6 C 20,0 C 67 % 1015,8 hPa 0,0 l/m 0 min 0 min 215 W/m 6,4 km/h (2 Bft) 100,00 %
01.09.2019 13:08 21,2 C 21,1 C 20,0 C 67 % 1015,7 hPa 0,0 l/m 0 min 0 min 255 W/m 6,4 km/h (2 Bft) 95,74 %
01.09.2019 13:10 21,1 C 21,7 C 20,0 C 67 % 1015,7 hPa 0,0 l/m 0 min 0 min 320 W/m 3,2 km/h (1 Bft) 100,00 %
01.09.2019 13:12 21,1 C 22,8 C 20,6 C 68 % 1015,7 hPa 0,0 l/m 2 min 0 min 423 W/m 6,4 km/h (2 Bft) 100,00 %
01.09.2019 13:14 21,1 C 22,8 C 21,1 C 68 % 1015,8 hPa 0,0 l/m 2 min 0 min 421 W/m 12,9 km/h (3 Bft) 100,00 %
01.09.2019 13:16 21,1 C 23,3 C 21,1 C 68 % 1015,8 hPa 0,0 l/m 2 min 0 min 435 W/m 9,7 km/h (2 Bft) 100,00 %
01.09.2019 13:18 21,1 C 25,0 C 21,7 C 67 % 1015,7 hPa 0,0 l/m 2 min 0 min 438 W/m 16,1 km/h (3 Bft) 97,87 %
01.09.2019 13:20 21,2 C 27,2 C 22,2 C 67 % 1015,8 hPa 0,0 l/m 2 min 0 min 781 W/m 9,7 km/h (2 Bft) 100,00 %
01.09.2019 13:22 21,3 C 28,3 C 22,8 C 66 % 1015,7 hPa 0,0 l/m 2 min 0 min 976 W/m 16,1 km/h (3 Bft) 97,87 %
01.09.2019 13:24 21,4 C 27,8 C 22,2 C 64 % 1015,8 hPa 0,0 l/m 2 min 0 min 958 W/m 12,9 km/h (3 Bft) 100,00 %
01.09.2019 13:26 21,6 C 26,1 C 22,2 C 64 % 1015,8 hPa 0,0 l/m 2 min 0 min 638 W/m 12,9 km/h (3 Bft) 97,83 %
01.09.2019 13:28 21,6 C 25,0 C 22,2 C 63 % 1015,9 hPa 0,0 l/m 2 min 0 min 412 W/m 12,9 km/h (3 Bft) 100,00 %
01.09.2019 13:30 21,6 C 23,9 C 21,7 C 63 % 1015,8 hPa 0,0 l/m 0 min 0 min 352 W/m 9,7 km/h (2 Bft) 100,00 %
01.09.2019 13:32 21,6 C 22,8 C 21,7 C 63 % 1015,9 hPa 0,0 l/m 0 min 0 min 311 W/m 9,7 km/h (2 Bft) 97,87 %
01.09.2019 13:34 21,6 C 22,2 C 21,1 C 63 % 1015,9 hPa 0,0 l/m 0 min 0 min 272 W/m 16,1 km/h (3 Bft) 100,00 %
01.09.2019 13:36 21,5 C 22,2 C 21,1 C 63 % 1015,9 hPa 0,0 l/m 0 min 0 min 262 W/m 12,9 km/h (3 Bft) 97,87 %
01.09.2019 13:38 21,4 C 21,7 C 21,1 C 62 % 1015,9 hPa 0,0 l/m 0 min 0 min 266 W/m 16,1 km/h (3 Bft) 100,00 %
01.09.2019 13:40 21,3 C 21,7 C 20,6 C 62 % 1015,9 hPa 0,0 l/m 0 min 0 min 262 W/m 12,9 km/h (3 Bft) 97,83 %
01.09.2019 13:42 21,3 C 21,7 C 20,6 C 63 % 1015,9 hPa 0,0 l/m 0 min 0 min 252 W/m 9,7 km/h (2 Bft) 97,87 %
01.09.2019 13:44 21,2 C 21,1 C 20,6 C 63 % 1016,0 hPa 0,0 l/m 0 min 0 min 255 W/m 9,7 km/h (2 Bft) 97,87 %
01.09.2019 13:46 21,1 C 21,1 C 20,6 C 63 % 1015,9 hPa 0,0 l/m 0 min 0 min 271 W/m 12,9 km/h (3 Bft) 97,87 %
01.09.2019 13:48 21,1 C 21,7 C 20,6 C 64 % 1016,0 hPa 0,0 l/m 0 min 0 min 283 W/m 12,9 km/h (3 Bft) 97,87 %
01.09.2019 13:50 21,0 C 21,7 C 20,6 C 64 % 1016,0 hPa 0,0 l/m 0 min 0 min 303 W/m 9,7 km/h (2 Bft) 97,87 %
01.09.2019 13:52 21,0 C 21,7 C 20,6 C 64 % 1016,2 hPa 0,0 l/m 0 min 0 min 333 W/m 9,7 km/h (2 Bft) 97,83 %
01.09.2019 13:54 20,9 C 22,2 C 21,1 C 65 % 1016,1 hPa 0,0 l/m 0 min 0 min 343 W/m 6,4 km/h (2 Bft) 97,87 %
01.09.2019 13:56 20,9 C 22,2 C 21,1 C 66 % 1016,1 hPa 0,0 l/m 0 min 0 min 345 W/m 9,7 km/h (2 Bft) 97,87 %
01.09.2019 13:58 20,9 C 22,2 C 21,1 C 65 % 1016,1 hPa 0,0 l/m 0 min 0 min 341 W/m 6,4 km/h (2 Bft) 97,87 %
01.09.2019 14:00 20,9 C 22,2 C 21,1 C 66 % 1016,1 hPa 0,0 l/m 0 min 0 min 340 W/m 9,7 km/h (2 Bft) 97,87 %
01.09.2019 14:02 20,9 C 22,8 C 21,1 C 66 % 1016,2 hPa 0,0 l/m 2 min 0 min 386 W/m 6,4 km/h (2 Bft) 97,87 %
01.09.2019 14:04 20,9 C 22,8 C 21,1 C 66 % 1016,2 hPa 0,0 l/m 2 min 0 min 427 W/m 6,4 km/h (2 Bft) 97,83 %
01.09.2019 14:06 20,9 C 23,3 C 21,1 C 67 % 1016,2 hPa 0,0 l/m 2 min 0 min 393 W/m 12,9 km/h (3 Bft) 97,87 %
01.09.2019 14:08 21,0 C 23,3 C 21,7 C 67 % 1016,1 hPa 0,0 l/m 2 min 0 min 379 W/m 6,4 km/h (2 Bft) 98,18 %
01.09.2019 14:10 21,0 C 22,8 C 21,1 C 67 % 1016,3 hPa 0,0 l/m 0 min 0 min 338 W/m 9,7 km/h (2 Bft) 97,83 %
01.09.2019 14:12 21,0 C 22,2 C 21,1 C 66 % 1016,2 hPa 0,0 l/m 0 min 0 min 311 W/m 16,1 km/h (3 Bft) 95,74 %
01.09.2019 14:14 21,0 C 22,2 C 21,1 C 66 % 1016,2 hPa 0,0 l/m 0 min 0 min 304 W/m 9,7 km/h (2 Bft) 97,87 %
01.09.2019 14:16 20,9 C 21,7 C 20,6 C 65 % 1016,2 hPa 0,0 l/m 0 min 0 min 298 W/m 3,2 km/h (1 Bft) 97,87 %
01.09.2019 14:18 20,9 C 21,1 C 20,6 C 65 % 1016,1 hPa 0,0 l/m 0 min 0 min 296 W/m 12,9 km/h (3 Bft) 97,87 %
01.09.2019 14:20 20,8 C 21,1 C 20,6 C 65 % 1016,1 hPa 0,0 l/m 0 min 0 min 290 W/m 12,9 km/h (3 Bft) 97,87 %
01.09.2019 14:22 20,8 C 21,1 C 20,6 C 66 % 1016,2 hPa 0,0 l/m 0 min 0 min 279 W/m 0,0 km/h (0 Bft) 95,65 %
01.09.2019 14:24 20,8 C 21,7 C 20,6 C 66 % 1016,1 hPa 0,0 l/m 0 min 0 min 274 W/m 9,7 km/h (2 Bft) 93,62 %
01.09.2019 14:26 20,8 C 21,7 C 20,6 C 66 % 1016,2 hPa 0,0 l/m 0 min 0 min 281 W/m 3,2 km/h (1 Bft) 95,74 %
01.09.2019 14:28 20,8 C 21,7 C 20,6 C 66 % 1016,2 hPa 0,0 l/m 0 min 0 min 302 W/m 16,1 km/h (3 Bft) 97,87 %
01.09.2019 14:30 20,8 C 22,2 C 20,6 C 66 % 1016,2 hPa 0,0 l/m 0 min 0 min 341 W/m 9,7 km/h (2 Bft) 97,87 %
01.09.2019 14:32 20,8 C 22,2 C 20,6 C 66 % 1016,2 hPa 0,0 l/m 2 min 0 min 375 W/m 9,7 km/h (2 Bft) 97,87 %
01.09.2019 14:34 20,8 C 22,8 C 21,1 C 67 % 1016,2 hPa 0,0 l/m 2 min 0 min 374 W/m 6,4 km/h (2 Bft) 97,83 %
01.09.2019 14:36 20,8 C 22,8 C 21,1 C 67 % 1016,3 hPa 0,0 l/m 2 min 0 min 352 W/m 6,4 km/h (2 Bft) 97,87 %
01.09.2019 14:38 20,9 C 22,8 C 21,1 C 66 % 1016,2 hPa 0,0 l/m 0 min 0 min 303 W/m 9,7 km/h (2 Bft) 100,00 %
01.09.2019 14:40 20,9 C 22,8 C 21,1 C 67 % 1016,2 hPa 0,0 l/m 0 min 0 min 273 W/m 3,2 km/h (1 Bft) 97,87 %
01.09.2019 14:42 20,9 C 22,2 C 21,1 C 67 % 1016,2 hPa 0,0 l/m 0 min 0 min 250 W/m 3,2 km/h (1 Bft) 95,74 %
01.09.2019 14:44 20,9 C 22,2 C 20,6 C 67 % 1016,2 hPa 0,0 l/m 0 min 0 min 258 W/m 6,4 km/h (2 Bft) 97,87 %
01.09.2019 14:46 20,9 C 22,2 C 20,6 C 66 % 1016,2 hPa 0,0 l/m 0 min 0 min 291 W/m 6,4 km/h (2 Bft) 95,65 %
01.09.2019 14:48 21,0 C 22,8 C 20,6 C 67 % 1016,2 hPa 0,0 l/m 0 min 0 min 336 W/m 6,4 km/h (2 Bft) 97,87 %
01.09.2019 14:50 21,0 C 23,3 C 21,1 C 66 % 1016,3 hPa 0,0 l/m 2 min 0 min 389 W/m 6,4 km/h (2 Bft) 95,74 %
01.09.2019 14:52 21,0 C 22,8 C 21,1 C 65 % 1016,3 hPa 0,0 l/m 2 min 0 min 364 W/m 16,1 km/h (3 Bft) 93,62 %
01.09.2019 14:54 21,0 C 22,2 C 21,1 C 64 % 1016,3 hPa 0,0 l/m 0 min 0 min 291 W/m 19,3 km/h (3 Bft) 95,74 %
01.09.2019 14:56 21,0 C 22,8 C 21,1 C 65 % 1016,3 hPa 0,0 l/m 2 min 0 min 352 W/m 9,7 km/h (2 Bft) 95,74 %
01.09.2019 14:58 21,0 C 23,3 C 21,1 C 66 % 1016,2 hPa 0,0 l/m 2 min 0 min 484 W/m 12,9 km/h (3 Bft) 95,65 %
01.09.2019 15:00 21,0 C 23,9 C 21,1 C 64 % 1016,3 hPa 0,0 l/m 2 min 0 min 520 W/m 16,1 km/h (3 Bft) 95,74 %
01.09.2019 15:02 21,0 C 24,4 C 21,7 C 65 % 1016,2 hPa 0,0 l/m 2 min 0 min 433 W/m 12,9 km/h (3 Bft) 95,74 %
01.09.2019 15:04 21,1 C 24,4 C 21,7 C 67 % 1016,3 hPa 0,0 l/m 2 min 0 min 397 W/m 9,7 km/h (2 Bft) 93,62 %
01.09.2019 15:06 21,1 C 23,9 C 21,1 C 66 % 1016,3 hPa 0,0 l/m 0 min 0 min 303 W/m 9,7 km/h (2 Bft) 93,62 %
01.09.2019 15:08 21,2 C 25,0 C 21,7 C 67 % 1016,3 hPa 0,0 l/m 0 min 0 min 299 W/m 9,7 km/h (2 Bft) 95,92 %
01.09.2019 15:10 21,3 C 25,6 C 21,7 C 66 % 1016,4 hPa 0,0 l/m 2 min 0 min 634 W/m 3,2 km/h (1 Bft) 95,74 %
01.09.2019 15:12 21,3 C 24,4 C 21,7 C 65 % 1016,3 hPa 0,0 l/m 2 min 0 min 495 W/m 9,7 km/h (2 Bft) 95,74 %
01.09.2019 15:14 21,3 C 23,3 C 21,1 C 65 % 1016,4 hPa 0,0 l/m 0 min 0 min 232 W/m 12,9 km/h (3 Bft) 95,74 %
01.09.2019 15:16 21,3 C 22,8 C 20,6 C 66 % 1016,4 hPa 0,0 l/m 0 min 0 min 226 W/m 16,1 km/h (3 Bft) 95,74 %
01.09.2019 15:18 21,3 C 23,9 C 21,1 C 66 % 1016,4 hPa 0,0 l/m 0 min 0 min 243 W/m 0,0 km/h (0 Bft) 95,74 %
01.09.2019 15:20 21,3 C 26,1 C 21,1 C 67 % 1016,3 hPa 0,0 l/m 2 min 0 min 702 W/m 6,4 km/h (2 Bft) 95,65 %
01.09.2019 15:22 21,4 C 25,6 C 21,7 C 65 % 1016,4 hPa 0,0 l/m 2 min 0 min 684 W/m 9,7 km/h (2 Bft) 91,49 %
01.09.2019 15:24 21,4 C 23,9 C 21,1 C 64 % 1016,5 hPa 0,0 l/m 0 min 0 min 257 W/m 9,7 km/h (2 Bft) 95,74 %
01.09.2019 15:26 21,4 C 22,8 C 21,1 C 64 % 1016,4 hPa 0,0 l/m 0 min 0 min 235 W/m 6,4 km/h (2 Bft) 93,62 %
01.09.2019 15:28 21,4 C 23,3 C 21,1 C 64 % 1016,4 hPa 0,0 l/m 0 min 0 min 240 W/m 6,4 km/h (2 Bft) 95,74 %
01.09.2019 15:30 21,4 C 26,1 C 21,1 C 65 % 1016,3 hPa 0,0 l/m 2 min 0 min 722 W/m 0,0 km/h (0 Bft) 95,65 %
01.09.2019 15:32 21,5 C 26,7 C 21,7 C 64 % 1016,4 hPa 0,0 l/m 2 min 0 min 841 W/m 9,7 km/h (2 Bft) 93,62 %
01.09.2019 15:34 21,6 C 27,2 C 21,7 C 65 % 1016,4 hPa 0,0 l/m 2 min 0 min 348 W/m 9,7 km/h (2 Bft) 97,87 %
01.09.2019 15:36 21,7 C 27,2 C 21,7 C 62 % 1016,4 hPa 0,0 l/m 2 min 0 min 690 W/m 9,7 km/h (2 Bft) 95,74 %
01.09.2019 15:38 21,8 C 27,2 C 21,7 C 62 % 1016,4 hPa 0,0 l/m 2 min 0 min 801 W/m 9,7 km/h (2 Bft) 97,92 %
01.09.2019 15:40 21,9 C 26,1 C 21,1 C 62 % 1016,3 hPa 0,0 l/m 2 min 0 min 826 W/m 12,9 km/h (3 Bft) 95,74 %
01.09.2019 15:42 21,9 C 26,1 C 21,1 C 62 % 1016,3 hPa 0,0 l/m 2 min 0 min 826 W/m 12,9 km/h (3 Bft) 97,87 %
01.09.2019 15:44 22,0 C 27,2 C 21,7 C 62 % 1016,4 hPa 0,0 l/m 2 min 0 min 820 W/m 12,9 km/h (3 Bft) 97,87 %
01.09.2019 15:46 22,1 C 26,1 C 21,1 C 61 % 1016,4 hPa 0,0 l/m 2 min 0 min 798 W/m 6,4 km/h (2 Bft) 100,00 %
01.09.2019 15:48 22,1 C 26,1 C 21,1 C 61 % 1016,3 hPa 0,0 l/m 2 min 0 min 798 W/m 9,7 km/h (2 Bft) 100,00 %
01.09.2019 15:50 22,1 C 24,4 C 21,1 C 61 % 1016,3 hPa 0,0 l/m 0 min 0 min 229 W/m 9,7 km/h (2 Bft) 100,00 %
01.09.2019 15:52 22,1 C 23,3 C 20,6 C 61 % 1016,4 hPa 0,0 l/m 0 min 0 min 197 W/m 9,7 km/h (2 Bft) 100,00 %
01.09.2019 15:54 22,0 C 22,2 C 20,6 C 60 % 1016,5 hPa 0,0 l/m 0 min 0 min 210 W/m 9,7 km/h (2 Bft) 100,00 %
01.09.2019 15:56 21,9 C 23,9 C 20,6 C 61 % 1016,4 hPa 0,0 l/m 2 min 0 min 374 W/m 6,4 km/h (2 Bft) 100,00 %
01.09.2019 15:58 22,0 C 26,1 C 21,1 C 62 % 1016,4 hPa 0,0 l/m 2 min 0 min 660 W/m 9,7 km/h (2 Bft) 100,00 %
01.09.2019 16:00 22,0 C 25,6 C 21,1 C 62 % 1016,4 hPa 0,0 l/m 2 min 0 min 704 W/m 6,4 km/h (2 Bft) 100,00 %
01.09.2019 16:02 22,0 C 26,7 C 21,1 C 61 % 1016,4 hPa 0,0 l/m 2 min 0 min 701 W/m 9,7 km/h (2 Bft) 97,87 %
01.09.2019 16:04 22,1 C 26,7 C 21,1 C 60 % 1016,3 hPa 0,0 l/m 2 min 0 min 718 W/m 16,1 km/h (3 Bft) 100,00 %
01.09.2019 16:06 22,1 C 27,8 C 21,7 C 60 % 1016,3 hPa 0,0 l/m 2 min 0 min 742 W/m 6,4 km/h (2 Bft) 97,87 %
01.09.2019 16:08 22,2 C 27,8 C 22,2 C 60 % 1016,5 hPa 0,0 l/m 2 min 0 min 752 W/m 9,7 km/h (2 Bft) 100,00 %
01.09.2019 16:10 22,3 C 27,2 C 22,2 C 61 % 1016,4 hPa 0,0 l/m 2 min 0 min 747 W/m 6,4 km/h (2 Bft) 100,00 %
01.09.2019 16:12 22,3 C 27,8 C 22,2 C 60 % 1016,4 hPa 0,0 l/m 2 min 0 min 729 W/m 6,4 km/h (2 Bft) 100,00 %
01.09.2019 16:14 22,4 C 27,2 C 22,2 C 58 % 1016,4 hPa 0,0 l/m 2 min 0 min 709 W/m 9,7 km/h (2 Bft) 100,00 %
01.09.2019 16:16 22,4 C 27,2 C 22,8 C 57 % 1016,3 hPa 0,0 l/m 2 min 0 min 691 W/m 9,7 km/h (2 Bft) 100,00 %
01.09.2019 16:18 22,5 C 26,7 C 23,9 C 57 % 1016,2 hPa 0,0 l/m 2 min 0 min 671 W/m 9,7 km/h (2 Bft) 100,00 %
01.09.2019 16:20 22,6 C 27,2 C 25,0 C 57 % 1016,3 hPa 0,0 l/m 2 min 0 min 661 W/m 9,7 km/h (2 Bft) 100,00 %
01.09.2019 16:22 22,7 C 27,2 C 24,4 C 59 % 1016,3 hPa 0,0 l/m 2 min 0 min 599 W/m 12,9 km/h (3 Bft) 100,00 %
01.09.2019 16:24 22,7 C 26,1 C 24,4 C 56 % 1016,4 hPa 0,0 l/m 2 min 0 min 499 W/m 12,9 km/h (3 Bft) 100,00 %
01.09.2019 16:26 22,6 C 25,6 C 23,3 C 55 % 1016,4 hPa 0,0 l/m 2 min 0 min 619 W/m 12,9 km/h (3 Bft) 100,00 %
01.09.2019 16:28 22,7 C 27,2 C 23,3 C 57 % 1016,3 hPa 0,0 l/m 2 min 0 min 613 W/m 9,7 km/h (2 Bft) 97,87 %
01.09.2019 16:30 22,7 C 27,2 C 23,9 C 58 % 1016,4 hPa 0,0 l/m 2 min 0 min 611 W/m 6,4 km/h (2 Bft) 100,00 %
01.09.2019 16:32 22,7 C 27,2 C 23,9 C 56 % 1016,4 hPa 0,0 l/m 2 min 0 min 612 W/m 6,4 km/h (2 Bft) 100,00 %
01.09.2019 16:34 22,8 C 27,2 C 23,9 C 56 % 1016,4 hPa 0,0 l/m 2 min 0 min 612 W/m 9,7 km/h (2 Bft) 97,87 %
01.09.2019 16:36 22,8 C 27,2 C 23,9 C 55 % 1016,3 hPa 0,0 l/m 2 min 0 min 604 W/m 9,7 km/h (2 Bft) 100,00 %
01.09.2019 16:38 22,8 C 27,2 C 23,3 C 56 % 1016,4 hPa 0,0 l/m 2 min 0 min 597 W/m 9,7 km/h (2 Bft) 100,00 %
01.09.2019 16:40 22,8 C 26,7 C 22,8 C 55 % 1016,4 hPa 0,0 l/m 2 min 0 min 592 W/m 12,9 km/h (3 Bft) 100,00 %
01.09.2019 16:42 22,8 C 26,1 C 22,8 C 55 % 1016,4 hPa 0,0 l/m 2 min 0 min 589 W/m 9,7 km/h (2 Bft) 100,00 %
01.09.2019 16:44 22,8 C 25,6 C 22,8 C 55 % 1016,4 hPa 0,0 l/m 2 min 0 min 594 W/m 9,7 km/h (2 Bft) 100,00 %
01.09.2019 16:46 22,7 C 25,0 C 22,8 C 54 % 1016,4 hPa 0,0 l/m 2 min 0 min 595 W/m 9,7 km/h (2 Bft) 95,65 %
01.09.2019 16:48 22,7 C 22,8 C 21,7 C 54 % 1016,3 hPa 0,0 l/m 0 min 0 min 166 W/m 9,7 km/h (2 Bft) 97,87 %
01.09.2019 16:50 22,6 C 21,7 C 21,1 C 55 % 1016,4 hPa 0,0 l/m 0 min 0 min 98 W/m 16,1 km/h (3 Bft) 97,87 %
01.09.2019 16:52 22,3 C 21,1 C 20,6 C 56 % 1016,4 hPa 0,0 l/m 0 min 0 min 100 W/m 6,4 km/h (2 Bft) 100,00 %
01.09.2019 16:54 22,2 C 21,7 C 20,6 C 57 % 1016,4 hPa 0,0 l/m 0 min 0 min 108 W/m 6,4 km/h (2 Bft) 95,74 %
01.09.2019 16:56 22,1 C 22,8 C 20,6 C 56 % 1016,4 hPa 0,0 l/m 0 min 0 min 182 W/m 12,9 km/h (3 Bft) 97,87 %
01.09.2019 16:58 22,1 C 23,3 C 20,6 C 57 % 1016,4 hPa 0,0 l/m 2 min 0 min 501 W/m 16,1 km/h (3 Bft) 97,83 %
01.09.2019 17:00 22,0 C 22,8 C 20,6 C 58 % 1016,4 hPa 0,0 l/m 0 min 0 min 167 W/m 12,9 km/h (3 Bft) 95,74 %
01.09.2019 17:02 21,9 C 21,1 C 20,0 C 54 % 1016,4 hPa 0,0 l/m 0 min 0 min 110 W/m 9,7 km/h (2 Bft) 95,74 %
01.09.2019 17:04 21,8 C 22,2 C 20,0 C 53 % 1016,4 hPa 0,0 l/m 0 min 0 min 105 W/m 6,4 km/h (2 Bft) 97,87 %
01.09.2019 17:06 21,7 C 21,7 C 20,0 C 52 % 1016,5 hPa 0,0 l/m 0 min 0 min 105 W/m 12,9 km/h (3 Bft) 97,87 %
01.09.2019 17:08 21,6 C 21,1 C 20,0 C 55 % 1016,4 hPa 0,0 l/m 0 min 0 min 114 W/m 0,0 km/h (0 Bft) 98,18 %
01.09.2019 17:10 21,6 C 22,8 C 20,0 C 53 % 1016,4 hPa 0,0 l/m 0 min 0 min 129 W/m 19,3 km/h (3 Bft) 97,87 %
01.09.2019 17:12 21,6 C 23,9 C 20,6 C 53 % 1016,3 hPa 0,0 l/m 2 min 0 min 505 W/m 12,9 km/h (3 Bft) 95,74 %
01.09.2019 17:14 21,6 C 25,6 C 20,6 C 54 % 1016,3 hPa 0,0 l/m 2 min 0 min 516 W/m 6,4 km/h (2 Bft) 97,87 %
01.09.2019 17:16 21,6 C 26,1 C 21,1 C 54 % 1016,4 hPa 0,0 l/m 2 min 0 min 523 W/m 9,7 km/h (2 Bft) 97,83 %
01.09.2019 17:18 21,6 C 26,1 C 21,1 C 53 % 1016,3 hPa 0,0 l/m 2 min 0 min 515 W/m 16,1 km/h (3 Bft) 100,00 %
01.09.2019 17:20 21,7 C 26,1 C 21,1 C 54 % 1016,3 hPa 0,0 l/m 2 min 0 min 507 W/m 9,7 km/h (2 Bft) 95,74 %
01.09.2019 17:22 21,7 C 25,6 C 21,1 C 52 % 1016,2 hPa 0,0 l/m 2 min 0 min 505 W/m 9,7 km/h (2 Bft) 95,74 %
01.09.2019 17:24 21,8 C 23,3 C 20,6 C 52 % 1016,3 hPa 0,0 l/m 2 min 0 min 427 W/m 9,7 km/h (2 Bft) 93,62 %
01.09.2019 17:26 21,8 C 22,2 C 20,6 C 52 % 1016,2 hPa 0,0 l/m 0 min 0 min 66 W/m 16,1 km/h (3 Bft) 93,62 %
01.09.2019 17:28 21,7 C 21,7 C 20,0 C 52 % 1016,2 hPa 0,0 l/m 0 min 0 min 72 W/m 6,4 km/h (2 Bft) 95,65 %
01.09.2019 17:30 21,7 C 23,3 C 20,0 C 51 % 1016,3 hPa 0,0 l/m 0 min 0 min 116 W/m 9,7 km/h (2 Bft) 95,74 %
01.09.2019 17:32 21,7 C 23,9 C 20,6 C 51 % 1016,4 hPa 0,0 l/m 2 min 0 min 480 W/m 9,7 km/h (2 Bft) 93,62 %
01.09.2019 17:34 21,7 C 25,0 C 20,6 C 52 % 1016,3 hPa 0,0 l/m 2 min 0 min 468 W/m 6,4 km/h (2 Bft) 95,74 %
01.09.2019 17:36 21,7 C 26,1 C 20,6 C 52 % 1016,3 hPa 0,0 l/m 2 min 0 min 456 W/m 3,2 km/h (1 Bft) 97,87 %
01.09.2019 17:38 21,8 C 26,1 C 20,6 C 52 % 1016,3 hPa 0,0 l/m 2 min 0 min 449 W/m 6,4 km/h (2 Bft) 96,00 %
01.09.2019 17:40 21,8 C 25,6 C 20,6 C 51 % 1016,3 hPa 0,0 l/m 2 min 0 min 442 W/m 19,3 km/h (3 Bft) 95,65 %
01.09.2019 17:42 21,9 C 25,6 C 20,6 C 52 % 1016,4 hPa 0,0 l/m 2 min 0 min 446 W/m 9,7 km/h (2 Bft) 93,62 %
01.09.2019 17:44 21,9 C 25,6 C 20,6 C 52 % 1016,3 hPa 0,0 l/m 2 min 0 min 447 W/m 19,3 km/h (3 Bft) 97,87 %
01.09.2019 17:46 22,0 C 25,0 C 20,6 C 53 % 1016,4 hPa 0,0 l/m 2 min 0 min 374 W/m 9,7 km/h (2 Bft) 97,87 %
01.09.2019 17:48 22,1 C 25,0 C 20,6 C 54 % 1016,3 hPa 0,0 l/m 0 min 0 min 161 W/m 6,4 km/h (2 Bft) 97,87 %
01.09.2019 17:50 22,1 C 25,6 C 20,6 C 56 % 1016,3 hPa 0,0 l/m 2 min 0 min 370 W/m 0,0 km/h (0 Bft) 95,65 %
01.09.2019 17:52 22,1 C 26,1 C 20,6 C 55 % 1016,3 hPa 0,0 l/m 2 min 0 min 434 W/m 6,4 km/h (2 Bft) 97,87 %
01.09.2019 17:54 22,2 C 26,1 C 20,6 C 56 % 1016,3 hPa 0,0 l/m 2 min 0 min 430 W/m 16,1 km/h (3 Bft) 97,87 %
01.09.2019 17:56 22,2 C 24,4 C 20,6 C 54 % 1016,4 hPa 0,0 l/m 2 min 0 min 429 W/m 16,1 km/h (3 Bft) 95,74 %
01.09.2019 17:58 22,2 C 23,9 C 20,6 C 53 % 1016,4 hPa 0,0 l/m 0 min 0 min 150 W/m 9,7 km/h (2 Bft) 93,62 %
01.09.2019 18:00 22,2 C 24,4 C 20,6 C 53 % 1016,4 hPa 0,0 l/m 2 min 0 min 391 W/m 9,7 km/h (2 Bft) 97,87 %
01.09.2019 18:02 22,2 C 25,0 C 20,6 C 53 % 1016,4 hPa 0,0 l/m 2 min 0 min 390 W/m 6,4 km/h (2 Bft) 97,83 %
01.09.2019 18:04 22,2 C 25,6 C 20,6 C 53 % 1016,4 hPa 0,0 l/m 2 min 0 min 382 W/m 6,4 km/h (2 Bft) 95,74 %
01.09.2019 18:08 22,2 C 26,1 C 20,0 C 53 % 1016,5 hPa 0,0 l/m 4 min 0 min 376 W/m 16,1 km/h (3 Bft) 97,87 %
01.09.2019 18:10 22,2 C 25,6 C 20,0 C 53 % 1016,5 hPa 0,0 l/m 2 min 0 min 355 W/m 9,7 km/h (2 Bft) 97,87 %
01.09.2019 18:12 22,2 C 25,0 C 20,0 C 52 % 1016,5 hPa 0,0 l/m 2 min 0 min 336 W/m 9,7 km/h (2 Bft) 100,00 %
01.09.2019 18:14 22,2 C 25,0 C 20,0 C 52 % 1016,6 hPa 0,0 l/m 2 min 0 min 330 W/m 9,7 km/h (2 Bft) 95,74 %
01.09.2019 18:16 22,1 C 24,4 C 20,0 C 53 % 1016,5 hPa 0,0 l/m 2 min 0 min 321 W/m 12,9 km/h (3 Bft) 95,65 %
01.09.2019 18:18 22,1 C 23,9 C 20,0 C 52 % 1016,5 hPa 0,0 l/m 2 min 0 min 310 W/m 9,7 km/h (2 Bft) 95,74 %
01.09.2019 18:20 22,0 C 22,2 C 20,0 C 52 % 1016,6 hPa 0,0 l/m 2 min 0 min 303 W/m 25,7 km/h (4 Bft) 95,74 %
01.09.2019 18:22 21,9 C 21,1 C 20,0 C 52 % 1016,6 hPa 0,0 l/m 2 min 0 min 287 W/m 9,7 km/h (2 Bft) 95,74 %
01.09.2019 18:24 21,8 C 20,6 C 19,4 C 53 % 1016,6 hPa 0,0 l/m 2 min 0 min 209 W/m 12,9 km/h (3 Bft) 97,87 %
01.09.2019 18:26 21,7 C 20,6 C 19,4 C 53 % 1016,6 hPa 0,0 l/m 0 min 0 min 108 W/m 6,4 km/h (2 Bft) 97,87 %
01.09.2019 18:28 21,7 C 20,0 C 19,4 C 53 % 1016,6 hPa 0,0 l/m 0 min 0 min 72 W/m 3,2 km/h (1 Bft) 97,83 %
01.09.2019 18:30 21,6 C 20,0 C 19,4 C 53 % 1016,6 hPa 0,0 l/m 0 min 0 min 75 W/m 6,4 km/h (2 Bft) 97,87 %
01.09.2019 18:32 21,5 C 20,0 C 19,4 C 54 % 1016,7 hPa 0,0 l/m 0 min 0 min 72 W/m 9,7 km/h (2 Bft) 97,87 %
01.09.2019 18:34 21,4 C 20,0 C 19,4 C 53 % 1016,7 hPa 0,0 l/m 0 min 0 min 68 W/m 16,1 km/h (3 Bft) 97,87 %
01.09.2019 18:36 21,3 C 19,4 C 18,9 C 54 % 1016,7 hPa 0,0 l/m 0 min 0 min 60 W/m 12,9 km/h (3 Bft) 97,87 %
01.09.2019 18:38 21,2 C 19,4 C 18,9 C 55 % 1016,7 hPa 0,0 l/m 0 min 0 min 64 W/m 9,7 km/h (2 Bft) 95,74 %
01.09.2019 18:40 21,1 C 19,4 C 18,9 C 54 % 1016,7 hPa 0,0 l/m 0 min 0 min 59 W/m 6,4 km/h (2 Bft) 97,83 %
01.09.2019 18:42 21,0 C 19,4 C 18,9 C 55 % 1016,7 hPa 0,0 l/m 0 min 0 min 64 W/m 6,4 km/h (2 Bft) 95,74 %
01.09.2019 18:44 20,9 C 19,4 C 18,9 C 56 % 1016,7 hPa 0,0 l/m 0 min 0 min 68 W/m 6,4 km/h (2 Bft) 95,74 %
01.09.2019 18:46 20,9 C 19,4 C 18,9 C 56 % 1016,7 hPa 0,0 l/m 0 min 0 min 66 W/m 9,7 km/h (2 Bft) 97,87 %
01.09.2019 18:48 20,8 C 19,4 C 18,9 C 57 % 1016,7 hPa 0,0 l/m 0 min 0 min 55 W/m 9,7 km/h (2 Bft) 97,87 %
01.09.2019 18:50 20,7 C 18,9 C 18,9 C 56 % 1016,7 hPa 0,0 l/m 0 min 0 min 49 W/m 0,0 km/h (0 Bft) 97,87 %
01.09.2019 18:52 20,6 C 18,9 C 18,3 C 57 % 1016,8 hPa 0,0 l/m 0 min 0 min 44 W/m 6,4 km/h (2 Bft) 95,65 %
01.09.2019 18:54 20,6 C 18,9 C 18,3 C 56 % 1016,8 hPa 0,0 l/m 0 min 0 min 39 W/m 3,2 km/h (1 Bft) 95,74 %
01.09.2019 18:56 20,4 C 18,3 C 18,3 C 57 % 1016,8 hPa 0,0 l/m 0 min 0 min 35 W/m 3,2 km/h (1 Bft) 97,87 %
01.09.2019 18:58 20,4 C 18,3 C 18,3 C 57 % 1016,9 hPa 0,0 l/m 0 min 0 min 33 W/m 9,7 km/h (2 Bft) 95,74 %
01.09.2019 19:00 20,3 C 18,3 C 18,3 C 56 % 1016,9 hPa 0,0 l/m 0 min 0 min 32 W/m 6,4 km/h (2 Bft) 97,87 %
01.09.2019 19:02 20,2 C 18,3 C 18,3 C 57 % 1016,9 hPa 0,0 l/m 0 min 0 min 30 W/m 3,2 km/h (1 Bft) 97,87 %
01.09.2019 19:04 20,2 C 18,3 C 17,8 C 57 % 1016,9 hPa 0,0 l/m 0 min 0 min 30 W/m 3,2 km/h (1 Bft) 97,83 %
01.09.2019 19:06 20,1 C 18,3 C 17,8 C 58 % 1016,9 hPa 0,0 l/m 0 min 0 min 32 W/m 0,0 km/h (0 Bft) 97,87 %
01.09.2019 19:08 20,0 C 18,3 C 17,8 C 58 % 1017,0 hPa 0,0 l/m 0 min 0 min 34 W/m 0,0 km/h (0 Bft) 100,00 %
01.09.2019 19:10 20,0 C 18,3 C 17,8 C 58 % 1016,9 hPa 0,0 l/m 0 min 0 min 41 W/m 3,2 km/h (1 Bft) 100,00 %
01.09.2019 19:12 19,9 C 18,3 C 17,8 C 58 % 1017,0 hPa 0,0 l/m 0 min 0 min 46 W/m 6,4 km/h (2 Bft) 100,00 %
01.09.2019 19:14 19,8 C 18,3 C 18,3 C 59 % 1016,9 hPa 0,0 l/m 0 min 0 min 52 W/m 0,0 km/h (0 Bft) 100,00 %
01.09.2019 19:16 19,8 C 18,3 C 18,3 C 59 % 1017,0 hPa 0,0 l/m 0 min 0 min 55 W/m 3,2 km/h (1 Bft) 100,00 %
01.09.2019 19:18 19,8 C 18,9 C 18,3 C 59 % 1017,0 hPa 0,0 l/m 0 min 0 min 59 W/m 0,0 km/h (0 Bft) 97,87 %
01.09.2019 19:20 19,7 C 18,9 C 18,3 C 59 % 1017,0 hPa 0,0 l/m 0 min 0 min 59 W/m 0,0 km/h (0 Bft) 100,00 %
01.09.2019 19:22 19,7 C 18,9 C 18,3 C 58 % 1017,0 hPa 0,0 l/m 0 min 0 min 55 W/m 6,4 km/h (2 Bft) 100,00 %
01.09.2019 19:24 19,7 C 18,9 C 18,3 C 59 % 1017,0 hPa 0,0 l/m 0 min 0 min 53 W/m 0,0 km/h (0 Bft) 100,00 %
01.09.2019 19:26 19,6 C 18,3 C 18,3 C 59 % 1017,0 hPa 0,0 l/m 0 min 0 min 48 W/m 0,0 km/h (0 Bft) 100,00 %
01.09.2019 19:28 19,6 C 18,3 C 18,3 C 59 % 1017,0 hPa 0,0 l/m 0 min 0 min 43 W/m 12,9 km/h (3 Bft) 95,65 %
01.09.2019 19:30 19,5 C 18,3 C 18,3 C 58 % 1017,1 hPa 0,0 l/m 0 min 0 min 34 W/m 6,4 km/h (2 Bft) 100,00 %
01.09.2019 19:32 19,5 C 18,3 C 17,8 C 58 % 1017,2 hPa 0,0 l/m 0 min 0 min 30 W/m 6,4 km/h (2 Bft) 100,00 %
01.09.2019 19:34 19,4 C 18,3 C 17,8 C 58 % 1017,2 hPa 0,0 l/m 0 min 0 min 28 W/m 0,0 km/h (0 Bft) 100,00 %
01.09.2019 19:36 19,4 C 17,8 C 17,8 C 58 % 1017,2 hPa 0,0 l/m 0 min 0 min 30 W/m 6,4 km/h (2 Bft) 100,00 %
01.09.2019 19:38 19,3 C 17,8 C 17,8 C 58 % 1017,2 hPa 0,0 l/m 0 min 0 min 30 W/m 6,4 km/h (2 Bft) 97,83 %
01.09.2019 19:40 19,3 C 17,8 C 17,8 C 58 % 1017,2 hPa 0,0 l/m 0 min 0 min 27 W/m 0,0 km/h (0 Bft) 100,00 %
01.09.2019 19:42 19,3 C 17,8 C 17,8 C 59 % 1017,2 hPa 0,0 l/m 0 min 0 min 25 W/m 0,0 km/h (0 Bft) 100,00 %
01.09.2019 19:44 19,2 C 17,8 C 17,8 C 59 % 1017,2 hPa 0,0 l/m 0 min 0 min 24 W/m 0,0 km/h (0 Bft) 100,00 %
01.09.2019 19:46 19,2 C 17,8 C 17,8 C 59 % 1017,2 hPa 0,0 l/m 0 min 0 min 22 W/m 0,0 km/h (0 Bft) 100,00 %
01.09.2019 19:48 19,2 C 17,8 C 17,8 C 60 % 1017,2 hPa 0,0 l/m 0 min 0 min 20 W/m 0,0 km/h (0 Bft) 97,87 %
01.09.2019 19:50 19,1 C 17,8 C 17,8 C 60 % 1017,3 hPa 0,0 l/m 0 min 0 min 19 W/m 0,0 km/h (0 Bft) 97,83 %
01.09.2019 19:52 19,1 C 17,8 C 17,2 C 60 % 1017,4 hPa 0,0 l/m 0 min 0 min 18 W/m 6,4 km/h (2 Bft) 100,00 %
01.09.2019 19:54 19,1 C 17,2 C 17,2 C 61 % 1017,4 hPa 0,0 l/m 0 min 0 min 17 W/m 9,7 km/h (2 Bft) 97,87 %
01.09.2019 19:56 19,0 C 17,2 C 17,2 C 61 % 1017,5 hPa 0,0 l/m 0 min 0 min 16 W/m 0,0 km/h (0 Bft) 97,87 %
01.09.2019 19:58 19,0 C 17,2 C 17,2 C 61 % 1017,5 hPa 0,0 l/m 0 min 0 min 14 W/m 0,0 km/h (0 Bft) 94,29 %
01.09.2019 20:00 18,9 C 17,2 C 17,2 C 61 % 1017,5 hPa 0,0 l/m 0 min 0 min 12 W/m 0,0 km/h (0 Bft) 96,36 %
01.09.2019 20:02 18,9 C 17,2 C 17,2 C 61 % 1017,5 hPa 0,0 l/m 0 min 0 min 12 W/m 3,2 km/h (1 Bft) 94,00 %
01.09.2019 20:04 18,9 C 17,2 C 17,2 C 61 % 1017,5 hPa 0,0 l/m 0 min 0 min 11 W/m 0,0 km/h (0 Bft) 93,62 %
01.09.2019 20:06 18,9 C 17,2 C 17,2 C 61 % 1017,5 hPa 0,0 l/m 0 min 0 min 10 W/m 0,0 km/h (0 Bft) 95,74 %
01.09.2019 20:08 18,8 C 17,2 C 17,2 C 62 % 1017,7 hPa 0,0 l/m 0 min 0 min 9 W/m 3,2 km/h (1 Bft) 94,29 %
01.09.2019 20:10 18,8 C 17,2 C 17,2 C 61 % 1017,7 hPa 0,0 l/m 0 min 0 min 8 W/m 3,2 km/h (1 Bft) 96,43 %
01.09.2019 20:12 18,7 C 17,2 C 17,2 C 61 % 1017,7 hPa 0,0 l/m 0 min 0 min 7 W/m 3,2 km/h (1 Bft) 95,92 %
01.09.2019 20:14 18,7 C 17,2 C 17,2 C 62 % 1017,7 hPa 0,0 l/m 0 min 0 min 7 W/m 3,2 km/h (1 Bft) 95,74 %
01.09.2019 20:16 18,7 C 17,2 C 17,2 C 62 % 1017,7 hPa 0,0 l/m 0 min 0 min 5 W/m 6,4 km/h (2 Bft) 91,43 %
01.09.2019 20:18 18,6 C 17,2 C 17,2 C 61 % 1017,7 hPa 0,0 l/m 0 min 0 min 5 W/m 3,2 km/h (1 Bft) 92,86 %
01.09.2019 20:20 18,6 C 17,2 C 17,2 C 62 % 1017,8 hPa 0,0 l/m 0 min 0 min 4 W/m 12,9 km/h (3 Bft) 96,00 %
01.09.2019 20:22 18,5 C 16,7 C 16,7 C 62 % 1017,7 hPa 0,0 l/m 0 min 0 min 0 W/m 3,2 km/h (1 Bft) 93,62 %
01.09.2019 20:24 18,4 C 16,7 C 16,7 C 62 % 1017,8 hPa 0,0 l/m 0 min 0 min 0 W/m 6,4 km/h (2 Bft) 97,14 %
01.09.2019 20:26 18,4 C 16,7 C 16,7 C 62 % 1017,8 hPa 0,0 l/m 0 min 0 min 0 W/m 0,0 km/h (0 Bft) 94,55 %
01.09.2019 20:28 18,4 C 16,7 C 16,7 C 62 % 1017,9 hPa 0,0 l/m 0 min 0 min 0 W/m 3,2 km/h (1 Bft) 96,00 %
01.09.2019 20:30 18,4 C 16,7 C 16,7 C 63 % 1018,0 hPa 0,0 l/m 0 min 0 min 0 W/m 0,0 km/h (0 Bft) 93,62 %
01.09.2019 20:32 18,3 C 16,7 C 16,7 C 62 % 1018,0 hPa 0,0 l/m 0 min 0 min 0 W/m 0,0 km/h (0 Bft) 94,29 %
01.09.2019 20:34 18,3 C 16,7 C 16,7 C 62 % 1018,0 hPa 0,0 l/m 0 min 0 min 0 W/m 6,4 km/h (2 Bft) 96,36 %
01.09.2019 20:36 18,3 C 16,7 C 16,7 C 62 % 1018,0 hPa 0,0 l/m 0 min 0 min 0 W/m 0,0 km/h (0 Bft) 93,62 %
01.09.2019 20:38 18,2 C 16,7 C 16,7 C 62 % 1018,1 hPa 0,0 l/m 0 min 0 min 0 W/m 0,0 km/h (0 Bft) 95,74 %
01.09.2019 20:40 18,2 C 16,1 C 16,7 C 63 % 1018,1 hPa 0,0 l/m 0 min 0 min 0 W/m 0,0 km/h (0 Bft) 95,74 %
01.09.2019 20:42 18,2 C 16,1 C 16,1 C 63 % 1018,3 hPa 0,0 l/m 0 min 0 min 0 W/m 0,0 km/h (0 Bft) 96,00 %
01.09.2019 20:44 18,1 C 16,1 C 16,1 C 63 % 1018,3 hPa 0,0 l/m 0 min 0 min 0 W/m 0,0 km/h (0 Bft) 95,74 %
01.09.2019 20:46 18,1 C 16,1 C 16,1 C 63 % 1018,3 hPa 0,0 l/m 0 min 0 min 0 W/m 0,0 km/h (0 Bft) 97,14 %
01.09.2019 20:48 18,1 C 16,1 C 16,1 C 63 % 1018,4 hPa 0,0 l/m 0 min 0 min 0 W/m 0,0 km/h (0 Bft) 94,55 %
01.09.2019 20:50 18,0 C 16,1 C 16,1 C 63 % 1018,4 hPa 0,0 l/m 0 min 0 min 0 W/m 0,0 km/h (0 Bft) 100,00 %
01.09.2019 20:52 18,0 C 15,6 C 15,6 C 63 % 1018,4 hPa 0,0 l/m 0 min 0 min 0 W/m 0,0 km/h (0 Bft) 97,87 %
01.09.2019 20:54 17,9 C 15,6 C 15,6 C 64 % 1018,4 hPa 0,0 l/m 0 min 0 min 0 W/m 0,0 km/h (0 Bft) 100,00 %
01.09.2019 20:56 17,9 C 15,6 C 15,6 C 64 % 1018,4 hPa 0,0 l/m 0 min 0 min 0 W/m 0,0 km/h (0 Bft) 98,21 %
01.09.2019 20:58 17,9 C 15,6 C 15,6 C 64 % 1018,5 hPa 0,0 l/m 0 min 0 min 0 W/m 0,0 km/h (0 Bft) 100,00 %
01.09.2019 21:00 17,8 C 15,6 C 15,6 C 64 % 1018,5 hPa 0,0 l/m 0 min 0 min 0 W/m 0,0 km/h (0 Bft) 97,87 %
01.09.2019 21:02 17,8 C 15,6 C 15,0 C 64 % 1018,5 hPa 0,0 l/m 0 min 0 min 0 W/m 0,0 km/h (0 Bft) 97,87 %
01.09.2019 21:04 17,7 C 15,6 C 15,0 C 64 % 1018,6 hPa 0,0 l/m 0 min 0 min 0 W/m 0,0 km/h (0 Bft) 94,29 %
01.09.2019 21:06 17,7 C 15,6 C 15,0 C 64 % 1018,6 hPa 0,0 l/m 0 min 0 min 0 W/m 0,0 km/h (0 Bft) 95,74 %
01.09.2019 21:08 17,7 C 15,0 C 15,0 C 65 % 1018,6 hPa 0,0 l/m 0 min 0 min 0 W/m 0,0 km/h (0 Bft) 95,74 %
01.09.2019 21:10 17,6 C 15,6 C 15,0 C 65 % 1018,6 hPa 0,0 l/m 0 min 0 min 0 W/m 0,0 km/h (0 Bft) 96,36 %
01.09.2019 21:12 17,5 C 15,0 C 15,0 C 65 % 1018,7 hPa 0,0 l/m 0 min 0 min 0 W/m 0,0 km/h (0 Bft) 98,00 %
01.09.2019 21:14 17,5 C 15,0 C 15,0 C 65 % 1018,7 hPa 0,0 l/m 0 min 0 min 0 W/m 0,0 km/h (0 Bft) 97,87 %
01.09.2019 21:16 17,4 C 15,0 C 15,0 C 65 % 1018,6 hPa 0,0 l/m 0 min 0 min 0 W/m 0,0 km/h (0 Bft) 97,14 %
01.09.2019 21:18 17,4 C 15,0 C 15,0 C 65 % 1018,6 hPa 0,0 l/m 0 min 0 min 0 W/m 0,0 km/h (0 Bft) 96,43 %
01.09.2019 21:20 17,3 C 15,0 C 15,0 C 65 % 1018,7 hPa 0,0 l/m 0 min 0 min 0 W/m 0,0 km/h (0 Bft) 97,96 %
01.09.2019 21:22 17,3 C 15,0 C 15,0 C 65 % 1018,7 hPa 0,0 l/m 0 min 0 min 0 W/m 0,0 km/h (0 Bft) 95,83 %
01.09.2019 21:24 17,3 C 15,0 C 15,0 C 66 % 1018,7 hPa 0,0 l/m 0 min 0 min 0 W/m 0,0 km/h (0 Bft) 97,14 %
01.09.2019 21:26 17,2 C 15,0 C 15,0 C 67 % 1018,7 hPa 0,0 l/m 0 min 0 min 0 W/m 0,0 km/h (0 Bft) 96,36 %
01.09.2019 21:28 17,2 C 15,0 C 15,0 C 67 % 1018,8 hPa 0,0 l/m 0 min 0 min 0 W/m 0,0 km/h (0 Bft) 96,00 %
01.09.2019 21:30 17,1 C 15,0 C 15,0 C 67 % 1018,7 hPa 0,0 l/m 0 min 0 min 0 W/m 0,0 km/h (0 Bft) 97,87 %
01.09.2019 21:32 17,0 C 15,0 C 15,0 C 67 % 1018,8 hPa 0,0 l/m 0 min 0 min 0 W/m 0,0 km/h (0 Bft) 97,14 %
01.09.2019 21:34 17,0 C 15,0 C 15,0 C 67 % 1018,8 hPa 0,0 l/m 0 min 0 min 0 W/m 0,0 km/h (0 Bft) 96,36 %
01.09.2019 21:36 16,9 C 15,0 C 15,0 C 68 % 1018,8 hPa 0,0 l/m 0 min 0 min 0 W/m 0,0 km/h (0 Bft) 98,00 %
01.09.2019 21:38 16,9 C 15,0 C 15,0 C 68 % 1018,8 hPa 0,0 l/m 0 min 0 min 0 W/m 0,0 km/h (0 Bft) 97,87 %
01.09.2019 21:40 16,8 C 15,0 C 15,0 C 68 % 1018,8 hPa 0,0 l/m 0 min 0 min 0 W/m 0,0 km/h (0 Bft) 97,14 %
01.09.2019 21:42 16,8 C 14,4 C 15,0 C 68 % 1018,9 hPa 0,0 l/m 0 min 0 min 0 W/m 0,0 km/h (0 Bft) 98,21 %
01.09.2019 21:44 16,7 C 14,4 C 14,4 C 68 % 1018,9 hPa 0,0 l/m 0 min 0 min 0 W/m 0,0 km/h (0 Bft) 100,00 %
01.09.2019 21:46 16,7 C 14,4 C 14,4 C 69 % 1018,9 hPa 0,0 l/m 0 min 0 min 0 W/m 0,0 km/h (0 Bft) 98,00 %
01.09.2019 21:48 16,7 C 14,4 C 14,4 C 69 % 1018,9 hPa 0,0 l/m 0 min 0 min 0 W/m 0,0 km/h (0 Bft) 100,00 %
01.09.2019 21:50 16,6 C 14,4 C 14,4 C 69 % 1018,9 hPa 0,0 l/m 0 min 0 min 0 W/m 0,0 km/h (0 Bft) 100,00 %
01.09.2019 21:52 16,6 C 14,4 C 14,4 C 69 % 1019,0 hPa 0,0 l/m 0 min 0 min 0 W/m 0,0 km/h (0 Bft) 100,00 %
01.09.2019 21:54 16,5 C 14,4 C 13,9 C 69 % 1019,0 hPa 0,0 l/m 0 min 0 min 0 W/m 0,0 km/h (0 Bft) 100,00 %
01.09.2019 21:56 16,4 C 13,9 C 13,9 C 68 % 1018,9 hPa 0,0 l/m 0 min 0 min 0 W/m 0,0 km/h (0 Bft) 100,00 %
01.09.2019 21:58 16,4 C 13,9 C 13,9 C 68 % 1019,0 hPa 0,0 l/m 0 min 0 min 0 W/m 0,0 km/h (0 Bft) 100,00 %
01.09.2019 22:00 16,4 C 13,9 C 13,9 C 68 % 1019,0 hPa 0,0 l/m 0 min 0 min 0 W/m 0,0 km/h (0 Bft) 100,00 %
01.09.2019 22:02 16,4 C 13,9 C 13,9 C 68 % 1019,1 hPa 0,0 l/m 0 min 0 min 0 W/m 0,0 km/h (0 Bft) 100,00 %
01.09.2019 22:04 16,3 C 13,9 C 13,9 C 68 % 1019,2 hPa 0,0 l/m 0 min 0 min 0 W/m 0,0 km/h (0 Bft) 100,00 %
01.09.2019 22:06 16,3 C 13,9 C 13,9 C 69 % 1019,1 hPa 0,0 l/m 0 min 0 min 0 W/m 0,0 km/h (0 Bft) 100,00 %
01.09.2019 22:08 16,2 C 13,9 C 13,9 C 69 % 1019,1 hPa 0,0 l/m 0 min 0 min 0 W/m 0,0 km/h (0 Bft) 100,00 %
01.09.2019 22:10 16,2 C 13,9 C 13,3 C 69 % 1019,1 hPa 0,0 l/m 0 min 0 min 0 W/m 0,0 km/h (0 Bft) 100,00 %
01.09.2019 22:12 16,2 C 13,9 C 13,3 C 69 % 1019,1 hPa 0,0 l/m 0 min 0 min 0 W/m 0,0 km/h (0 Bft) 100,00 %
01.09.2019 22:14 16,1 C 13,3 C 13,3 C 69 % 1019,1 hPa 0,0 l/m 0 min 0 min 0 W/m 0,0 km/h (0 Bft) 100,00 %
01.09.2019 22:16 16,1 C 13,3 C 13,3 C 69 % 1019,1 hPa 0,0 l/m 0 min 0 min 0 W/m 0,0 km/h (0 Bft) 100,00 %
01.09.2019 22:18 16,0 C 13,3 C 13,3 C 69 % 1019,2 hPa 0,0 l/m 0 min 0 min 0 W/m 0,0 km/h (0 Bft) 97,96 %
01.09.2019 22:20 15,9 C 13,3 C 13,3 C 69 % 1019,1 hPa 0,0 l/m 0 min 0 min 0 W/m 0,0 km/h (0 Bft) 100,00 %
01.09.2019 22:22 15,9 C 13,9 C 13,3 C 70 % 1019,2 hPa 0,0 l/m 0 min 0 min 0 W/m 0,0 km/h (0 Bft) 97,87 %
01.09.2019 22:24 15,8 C 13,3 C 13,3 C 70 % 1019,2 hPa 0,0 l/m 0 min 0 min 0 W/m 0,0 km/h (0 Bft) 100,00 %
01.09.2019 22:26 15,8 C 13,3 C 12,8 C 70 % 1019,2 hPa 0,0 l/m 0 min 0 min 0 W/m 0,0 km/h (0 Bft) 98,18 %
01.09.2019 22:28 15,7 C 13,3 C 12,8 C 70 % 1019,2 hPa 0,0 l/m 0 min 0 min 0 W/m 0,0 km/h (0 Bft) 100,00 %
01.09.2019 22:30 15,7 C 13,3 C 12,8 C 70 % 1019,3 hPa 0,0 l/m 0 min 0 min 0 W/m 0,0 km/h (0 Bft) 100,00 %
01.09.2019 22:32 15,7 C 13,3 C 12,8 C 70 % 1019,3 hPa 0,0 l/m 0 min 0 min 0 W/m 0,0 km/h (0 Bft) 100,00 %
01.09.2019 22:34 15,6 C 13,3 C 12,8 C 70 % 1019,3 hPa 0,0 l/m 0 min 0 min 0 W/m 0,0 km/h (0 Bft) 100,00 %
01.09.2019 22:36 15,6 C 13,3 C 12,8 C 71 % 1019,3 hPa 0,0 l/m 0 min 0 min 0 W/m 0,0 km/h (0 Bft) 95,74 %
01.09.2019 22:38 15,5 C 13,3 C 12,8 C 71 % 1019,3 hPa 0,0 l/m 0 min 0 min 0 W/m 0,0 km/h (0 Bft) 100,00 %
01.09.2019 22:40 15,4 C 12,8 C 12,8 C 71 % 1019,3 hPa 0,0 l/m 0 min 0 min 0 W/m 0,0 km/h (0 Bft) 100,00 %
01.09.2019 22:42 15,4 C 12,8 C 12,8 C 71 % 1019,3 hPa 0,0 l/m 0 min 0 min 0 W/m 0,0 km/h (0 Bft) 100,00 %
01.09.2019 22:44 15,4 C 12,8 C 12,8 C 71 % 1019,4 hPa 0,0 l/m 0 min 0 min 0 W/m 0,0 km/h (0 Bft) 100,00 %
01.09.2019 22:46 15,3 C 12,8 C 12,2 C 71 % 1019,4 hPa 0,0 l/m 0 min 0 min 0 W/m 0,0 km/h (0 Bft) 100,00 %
01.09.2019 22:48 15,3 C 12,8 C 12,2 C 71 % 1019,4 hPa 0,0 l/m 0 min 0 min 0 W/m 0,0 km/h (0 Bft) 100,00 %
01.09.2019 22:50 15,2 C 12,8 C 12,2 C 72 % 1019,4 hPa 0,0 l/m 0 min 0 min 0 W/m 0,0 km/h (0 Bft) 97,14 %
01.09.2019 22:52 15,2 C 12,8 C 12,2 C 72 % 1019,5 hPa 0,0 l/m 0 min 0 min 0 W/m 0,0 km/h (0 Bft) 100,00 %
01.09.2019 22:54 15,1 C 12,8 C 12,2 C 72 % 1019,5 hPa 0,0 l/m 0 min 0 min 0 W/m 0,0 km/h (0 Bft) 100,00 %
01.09.2019 22:56 15,1 C 12,8 C 12,2 C 72 % 1019,5 hPa 0,0 l/m 0 min 0 min 0 W/m 0,0 km/h (0 Bft) 100,00 %
01.09.2019 22:58 15,1 C 12,8 C 12,2 C 72 % 1019,5 hPa 0,0 l/m 0 min 0 min 0 W/m 0,0 km/h (0 Bft) 97,87 %
01.09.2019 23:00 15,0 C 12,8 C 12,2 C 72 % 1019,5 hPa 0,0 l/m 0 min 0 min 0 W/m 0,0 km/h (0 Bft) 95,74 %
01.09.2019 23:02 14,9 C 12,8 C 12,2 C 72 % 1019,6 hPa 0,0 l/m 0 min 0 min 0 W/m 0,0 km/h (0 Bft) 97,87 %
01.09.2019 23:04 14,9 C 12,8 C 12,2 C 72 % 1019,6 hPa 0,0 l/m 0 min 0 min 0 W/m 0,0 km/h (0 Bft) 97,87 %
01.09.2019 23:06 14,8 C 12,8 C 12,2 C 72 % 1019,7 hPa 0,0 l/m 0 min 0 min 0 W/m 0,0 km/h (0 Bft) 100,00 %
01.09.2019 23:08 14,8 C 12,8 C 12,2 C 72 % 1019,7 hPa 0,0 l/m 0 min 0 min 0 W/m 0,0 km/h (0 Bft) 95,65 %
01.09.2019 23:10 14,8 C 12,8 C 12,2 C 73 % 1019,7 hPa 0,0 l/m 0 min 0 min 0 W/m 0,0 km/h (0 Bft) 95,74 %
01.09.2019 23:12 14,7 C 12,8 C 12,2 C 73 % 1019,8 hPa 0,0 l/m 0 min 0 min 0 W/m 0,0 km/h (0 Bft) 95,74 %
01.09.2019 23:14 14,7 C 12,8 C 12,2 C 73 % 1019,7 hPa 0,0 l/m 0 min 0 min 0 W/m 0,0 km/h (0 Bft) 97,87 %
01.09.2019 23:16 14,6 C 12,8 C 12,2 C 73 % 1019,7 hPa 0,0 l/m 0 min 0 min 0 W/m 0,0 km/h (0 Bft) 93,62 %
01.09.2019 23:18 14,6 C 12,8 C 12,8 C 73 % 1019,7 hPa 0,0 l/m 0 min 0 min 0 W/m 0,0 km/h (0 Bft) 95,74 %
01.09.2019 23:20 14,6 C 12,8 C 12,2 C 73 % 1019,7 hPa 0,0 l/m 0 min 0 min 0 W/m 0,0 km/h (0 Bft) 95,65 %
01.09.2019 23:22 14,5 C 12,8 C 12,2 C 73 % 1019,7 hPa 0,0 l/m 0 min 0 min 0 W/m 0,0 km/h (0 Bft) 95,74 %
01.09.2019 23:24 14,5 C 12,8 C 12,2 C 74 % 1019,7 hPa 0,0 l/m 0 min 0 min 0 W/m 0,0 km/h (0 Bft) 93,62 %
01.09.2019 23:26 14,4 C 12,8 C 12,2 C 74 % 1019,7 hPa 0,0 l/m 0 min 0 min 0 W/m 0,0 km/h (0 Bft) 95,74 %
01.09.2019 23:28 14,4 C 12,8 C 12,2 C 74 % 1019,7 hPa 0,0 l/m 0 min 0 min 0 W/m 0,0 km/h (0 Bft) 93,62 %
01.09.2019 23:30 14,3 C 12,2 C 12,2 C 74 % 1019,7 hPa 0,0 l/m 0 min 0 min 0 W/m 0,0 km/h (0 Bft) 95,74 %
01.09.2019 23:32 14,3 C 12,2 C 12,2 C 74 % 1019,8 hPa 0,0 l/m 0 min 0 min 0 W/m 6,4 km/h (2 Bft) 97,83 %
01.09.2019 23:34 14,2 C 12,2 C 12,2 C 74 % 1019,8 hPa 0,0 l/m 0 min 0 min 0 W/m 3,2 km/h (1 Bft) 95,74 %
01.09.2019 23:36 14,2 C 12,2 C 12,2 C 74 % 1019,8 hPa 0,0 l/m 0 min 0 min 0 W/m 0,0 km/h (0 Bft) 93,62 %
01.09.2019 23:38 14,2 C 12,2 C 12,2 C 75 % 1019,8 hPa 0,0 l/m 0 min 0 min 0 W/m 0,0 km/h (0 Bft) 95,74 %
01.09.2019 23:40 14,2 C 12,2 C 12,2 C 75 % 1019,8 hPa 0,0 l/m 0 min 0 min 0 W/m 0,0 km/h (0 Bft) 93,62 %
01.09.2019 23:42 14,2 C 12,2 C 12,2 C 75 % 1019,9 hPa 0,0 l/m 0 min 0 min 0 W/m 0,0 km/h (0 Bft) 95,74 %
01.09.2019 23:44 14,2 C 12,2 C 12,2 C 75 % 1020,0 hPa 0,0 l/m 0 min 0 min 0 W/m 0,0 km/h (0 Bft) 95,65 %
01.09.2019 23:46 14,1 C 12,2 C 12,2 C 75 % 1019,9 hPa 0,0 l/m 0 min 0 min 0 W/m 0,0 km/h (0 Bft) 93,62 %
01.09.2019 23:48 14,1 C 12,2 C 12,2 C 75 % 1019,9 hPa 0,0 l/m 0 min 0 min 0 W/m 0,0 km/h (0 Bft) 95,74 %
01.09.2019 23:50 14,0 C 12,2 C 11,7 C 75 % 1019,9 hPa 0,0 l/m 0 min 0 min 0 W/m 0,0 km/h (0 Bft) 97,87 %
01.09.2019 23:52 13,9 C 12,2 C 11,7 C 76 % 1019,8 hPa 0,0 l/m 0 min 0 min 0 W/m 6,4 km/h (2 Bft) 97,87 %
01.09.2019 23:54 13,9 C 12,2 C 11,7 C 76 % 1019,9 hPa 0,0 l/m 0 min 0 min 0 W/m 0,0 km/h (0 Bft) 97,87 %
01.09.2019 23:56 13,9 C 12,2 C 11,7 C 75 % 1020,0 hPa 0,0 l/m 0 min 0 min 0 W/m 0,0 km/h (0 Bft) 97,83 %
01.09.2019 23:58 13,8 C 12,2 C 11,7 C 76 % 1019,9 hPa 0,0 l/m 0 min 0 min 0 W/m 0,0 km/h (0 Bft) 97,87 %
_ Min-Zeit 23:58 23:30 23:50 17:30 00:00 - - - - 03:08 07:36
Minimum _ 13,8 C 12,2 C 11,7 C 51 % 1010,3 hPa - - - - 0,0 km/h (0 Bft) 87,23 %
_ Max-Zeit 16:34 13:22 16:20 06:10 23:44 00:00 18:08 07:08 13:22 18:20 00:04
Maximum _ 22,8 C 28,3 C 25,0 C 89 % 1020,0 hPa 0,0 l/m 4 min 2 min 976 W/m 25,7 km/h
W (4 Bft)
100,00 %
Durchschnitt _ 18,9 C 18,9 C 18,0 C 73 % 1014,9 hPa #0,0 l/m #5:06 h #8 min. 259 W/m 6,3 km/h (2 Bft) 97,54 %
© 2019 W. Hausmann